Wetterdaten: Samstag, 03.12.2016
Datum Zeit Temp. Aussen Temp. o. S. +5cm Feuchte Auss BlattFeu 1 Luftdruck Regen Sonnenschein Regendauer Solar Windben Empfang
03.12.2016 00:00 0,1 C -1,1 C -2,8 C 94 % 15 lf 1023,8 hPa 0,0 l/m 0 min 0 min 0 W/m 0,0 km/h (0 Bft) 95,74 %
03.12.2016 00:02 0,0 C -1,1 C -2,8 C 94 % 15 lf 1023,8 hPa 0,0 l/m 0 min 0 min 0 W/m 0,0 km/h (0 Bft) 90,70 %
03.12.2016 00:05 -0,1 C -1,1 C -2,8 C 94 % 15 lf 1023,8 hPa 0,0 l/m 0 min 0 min 0 W/m 0,0 km/h (0 Bft) 94,29 %
03.12.2016 00:06 -0,1 C -1,7 C -2,8 C 94 % 15 lf 1023,8 hPa 0,0 l/m 0 min 0 min 0 W/m 0,0 km/h (0 Bft) 100,00 %
03.12.2016 00:08 -0,1 C -1,7 C -2,8 C 94 % 15 lf 1023,8 hPa 0,0 l/m 0 min 0 min 0 W/m 0,0 km/h (0 Bft) 93,62 %
03.12.2016 00:10 -0,1 C -1,7 C -2,8 C 94 % 15 lf 1023,8 hPa 0,0 l/m 0 min 0 min 2 W/m 0,0 km/h (0 Bft) 93,62 %
03.12.2016 00:12 -0,1 C -1,7 C -2,8 C 94 % 14 lf 1023,8 hPa 0,0 l/m 0 min 0 min 0 W/m 0,0 km/h (0 Bft) 95,74 %
03.12.2016 00:14 -0,2 C -1,7 C -2,8 C 94 % 12 lf 1023,8 hPa 0,0 l/m 0 min 0 min 0 W/m 0,0 km/h (0 Bft) 91,49 %
03.12.2016 00:16 -0,2 C -1,7 C -2,8 C 94 % 7 lf 1023,8 hPa 0,0 l/m 0 min 0 min 0 W/m 0,0 km/h (0 Bft) 95,65 %
03.12.2016 00:18 -0,2 C -1,7 C -2,8 C 94 % 4 lf 1023,8 hPa 0,0 l/m 0 min 0 min 0 W/m 0,0 km/h (0 Bft) 91,49 %
03.12.2016 00:20 -0,2 C -1,7 C -2,8 C 94 % 4 lf 1023,8 hPa 0,0 l/m 0 min 0 min 0 W/m 0,0 km/h (0 Bft) 97,87 %
03.12.2016 00:22 -0,3 C -1,7 C -2,8 C 94 % 4 lf 1023,8 hPa 0,0 l/m 0 min 0 min 0 W/m 0,0 km/h (0 Bft) 93,62 %
03.12.2016 00:24 -0,3 C -1,7 C -2,8 C 94 % 4 lf 1023,8 hPa 0,0 l/m 0 min 0 min 0 W/m 0,0 km/h (0 Bft) 97,87 %
03.12.2016 00:26 -0,3 C -1,7 C -2,8 C 94 % 4 lf 1023,8 hPa 0,0 l/m 0 min 0 min 0 W/m 0,0 km/h (0 Bft) 97,87 %
03.12.2016 00:28 -0,3 C -1,7 C -2,8 C 94 % 4 lf 1023,8 hPa 0,0 l/m 0 min 0 min 0 W/m 0,0 km/h (0 Bft) 93,48 %
03.12.2016 00:30 -0,4 C -1,7 C -2,8 C 94 % 3 lf 1023,9 hPa 0,0 l/m 0 min 0 min 0 W/m 0,0 km/h (0 Bft) 97,87 %
03.12.2016 00:32 -0,4 C -1,7 C -2,8 C 94 % 3 lf 1023,8 hPa 0,0 l/m 0 min 0 min 0 W/m 0,0 km/h (0 Bft) 93,62 %
03.12.2016 00:34 -0,4 C -1,7 C -2,8 C 94 % 3 lf 1023,9 hPa 0,0 l/m 0 min 0 min 0 W/m 0,0 km/h (0 Bft) 97,87 %
03.12.2016 00:36 -0,4 C -1,7 C -2,8 C 94 % 3 lf 1023,9 hPa 0,0 l/m 0 min 0 min 0 W/m 0,0 km/h (0 Bft) 97,87 %
03.12.2016 00:38 -0,4 C -1,7 C -2,8 C 94 % 3 lf 1023,9 hPa 0,0 l/m 0 min 0 min 0 W/m 0,0 km/h (0 Bft) 95,74 %
03.12.2016 00:40 -0,5 C -2,2 C -2,8 C 94 % 3 lf 1023,9 hPa 0,0 l/m 0 min 0 min 0 W/m 0,0 km/h (0 Bft) 91,30 %
03.12.2016 00:42 -0,5 C -1,7 C -2,8 C 94 % 4 lf 1023,9 hPa 0,0 l/m 0 min 0 min 0 W/m 0,0 km/h (0 Bft) 97,87 %
03.12.2016 00:44 -0,5 C -1,7 C -2,8 C 94 % 3 lf 1024,0 hPa 0,0 l/m 0 min 0 min 0 W/m 0,0 km/h (0 Bft) 97,87 %
03.12.2016 00:46 -0,5 C 0,0 C -2,8 C 94 % 3 lf 1023,9 hPa 0,0 l/m 0 min 0 min 0 W/m 0,0 km/h (0 Bft) 97,87 %
03.12.2016 00:48 -0,5 C 0,0 C -2,8 C 94 % 3 lf 1023,9 hPa 0,0 l/m 0 min 0 min 0 W/m 0,0 km/h (0 Bft) 95,74 %
03.12.2016 00:50 -0,5 C 0,0 C -2,8 C 94 % 3 lf 1023,9 hPa 0,0 l/m 0 min 0 min 0 W/m 0,0 km/h (0 Bft) 93,62 %
03.12.2016 00:52 -0,6 C 0,0 C -2,8 C 94 % 3 lf 1023,9 hPa 0,0 l/m 0 min 0 min 0 W/m 0,0 km/h (0 Bft) 97,83 %
03.12.2016 00:54 -0,6 C -0,6 C -2,8 C 94 % 3 lf 1023,9 hPa 0,0 l/m 0 min 0 min 0 W/m 0,0 km/h (0 Bft) 93,62 %
03.12.2016 00:56 -0,6 C -0,6 C -2,8 C 94 % 3 lf 1023,9 hPa 0,0 l/m 0 min 0 min 0 W/m 0,0 km/h (0 Bft) 91,49 %
03.12.2016 00:58 -0,6 C -0,6 C -2,8 C 94 % 3 lf 1023,9 hPa 0,0 l/m 0 min 0 min 0 W/m 0,0 km/h (0 Bft) 97,87 %
03.12.2016 01:00 -0,6 C -0,6 C -2,8 C 95 % 3 lf 1023,9 hPa 0,0 l/m 0 min 0 min 0 W/m 0,0 km/h (0 Bft) 95,74 %
03.12.2016 01:02 -0,6 C -0,6 C -2,8 C 95 % 3 lf 1023,9 hPa 0,0 l/m 0 min 0 min 0 W/m 0,0 km/h (0 Bft) 95,74 %
03.12.2016 01:04 -0,6 C -1,1 C -2,8 C 95 % 3 lf 1023,9 hPa 0,0 l/m 0 min 0 min 0 W/m 0,0 km/h (0 Bft) 95,65 %
03.12.2016 01:06 -0,6 C -1,7 C -1,7 C 95 % 3 lf 1023,9 hPa 0,0 l/m 0 min 0 min 0 W/m 0,0 km/h (0 Bft) 97,87 %
03.12.2016 01:08 -0,6 C -1,7 C -1,7 C 95 % 2 lf 1023,9 hPa 0,0 l/m 0 min 0 min 0 W/m 0,0 km/h (0 Bft) 95,74 %
03.12.2016 01:10 -0,7 C -1,7 C -1,7 C 94 % 2 lf 1023,9 hPa 0,0 l/m 0 min 0 min 0 W/m 0,0 km/h (0 Bft) 93,62 %
03.12.2016 01:12 -0,7 C -1,7 C -1,7 C 94 % 2 lf 1023,9 hPa 0,0 l/m 0 min 0 min 0 W/m 0,0 km/h (0 Bft) 95,74 %
03.12.2016 01:14 -0,7 C -1,7 C -1,7 C 94 % 2 lf 1024,0 hPa 0,0 l/m 0 min 0 min 0 W/m 0,0 km/h (0 Bft) 97,87 %
03.12.2016 01:16 -0,7 C -2,2 C -1,7 C 94 % 2 lf 1024,0 hPa 0,0 l/m 0 min 0 min 0 W/m 0,0 km/h (0 Bft) 95,65 %
03.12.2016 01:18 -0,7 C -2,2 C -2,2 C 94 % 2 lf 1024,0 hPa 0,0 l/m 0 min 0 min 0 W/m 0,0 km/h (0 Bft) 95,74 %
03.12.2016 01:20 -0,7 C -2,2 C -2,2 C 94 % 2 lf 1023,9 hPa 0,0 l/m 0 min 0 min 0 W/m 0,0 km/h (0 Bft) 97,87 %
03.12.2016 01:22 -0,8 C -1,7 C -2,2 C 94 % 2 lf 1023,9 hPa 0,0 l/m 0 min 0 min 0 W/m 0,0 km/h (0 Bft) 95,74 %
03.12.2016 01:24 -0,8 C -2,2 C -2,2 C 94 % 2 lf 1024,0 hPa 0,0 l/m 0 min 0 min 0 W/m 0,0 km/h (0 Bft) 97,87 %
03.12.2016 01:26 -0,8 C -2,2 C -2,2 C 94 % 2 lf 1024,0 hPa 0,0 l/m 0 min 0 min 0 W/m 0,0 km/h (0 Bft) 95,65 %
03.12.2016 01:28 -0,8 C -2,2 C -2,2 C 94 % 2 lf 1024,0 hPa 0,0 l/m 0 min 0 min 0 W/m 0,0 km/h (0 Bft) 97,87 %
03.12.2016 01:30 -0,8 C -2,2 C -2,2 C 95 % 2 lf 1024,0 hPa 0,0 l/m 0 min 0 min 0 W/m 0,0 km/h (0 Bft) 95,74 %
03.12.2016 01:32 -0,8 C -2,2 C -2,2 C 95 % 2 lf 1024,0 hPa 0,0 l/m 0 min 0 min 0 W/m 0,0 km/h (0 Bft) 95,74 %
03.12.2016 01:34 -0,9 C -2,2 C -2,2 C 95 % 2 lf 1023,9 hPa 0,0 l/m 0 min 0 min 0 W/m 0,0 km/h (0 Bft) 95,74 %
03.12.2016 01:36 -0,9 C -2,2 C -2,8 C 95 % 2 lf 1024,0 hPa 0,0 l/m 0 min 0 min 0 W/m 0,0 km/h (0 Bft) 95,74 %
03.12.2016 01:38 -0,9 C -2,2 C -2,8 C 94 % 2 lf 1024,0 hPa 0,0 l/m 0 min 0 min 0 W/m 0,0 km/h (0 Bft) 97,83 %
03.12.2016 01:40 -0,9 C -2,2 C -2,8 C 94 % 2 lf 1024,0 hPa 0,0 l/m 0 min 0 min 0 W/m 0,0 km/h (0 Bft) 95,74 %
03.12.2016 01:42 -0,9 C -2,2 C -2,8 C 94 % 2 lf 1023,9 hPa 0,0 l/m 0 min 0 min 0 W/m 0,0 km/h (0 Bft) 95,74 %
03.12.2016 01:44 -1,0 C -2,2 C -2,8 C 94 % 2 lf 1024,0 hPa 0,0 l/m 0 min 0 min 0 W/m 0,0 km/h (0 Bft) 93,62 %
03.12.2016 01:46 -1,0 C -2,2 C -2,8 C 94 % 2 lf 1023,9 hPa 0,0 l/m 0 min 0 min 0 W/m 0,0 km/h (0 Bft) 93,62 %
03.12.2016 01:48 -1,0 C -2,2 C -2,8 C 94 % 2 lf 1024,0 hPa 0,0 l/m 0 min 0 min 0 W/m 0,0 km/h (0 Bft) 93,62 %
03.12.2016 01:50 -1,1 C -2,2 C -2,8 C 94 % 2 lf 1024,0 hPa 0,0 l/m 0 min 0 min 0 W/m 0,0 km/h (0 Bft) 95,65 %
03.12.2016 01:52 -1,1 C -2,2 C -2,8 C 94 % 2 lf 1023,9 hPa 0,0 l/m 0 min 0 min 0 W/m 0,0 km/h (0 Bft) 93,62 %
03.12.2016 01:54 -1,1 C -2,8 C -2,8 C 94 % 2 lf 1024,0 hPa 0,0 l/m 0 min 0 min 0 W/m 0,0 km/h (0 Bft) 93,62 %
03.12.2016 01:56 -1,1 C -2,8 C -2,8 C 94 % 2 lf 1023,9 hPa 0,0 l/m 0 min 0 min 0 W/m 0,0 km/h (0 Bft) 95,74 %
03.12.2016 01:58 -1,1 C -2,8 C -2,8 C 95 % 2 lf 1024,0 hPa 0,0 l/m 0 min 0 min 0 W/m 0,0 km/h (0 Bft) 95,74 %
03.12.2016 02:00 -1,1 C -2,8 C -2,8 C 95 % 2 lf 1023,9 hPa 0,0 l/m 0 min 0 min 0 W/m 0,0 km/h (0 Bft) 93,62 %
03.12.2016 02:02 -1,2 C -2,8 C -2,8 C 95 % 2 lf 1023,9 hPa 0,0 l/m 0 min 0 min 0 W/m 0,0 km/h (0 Bft) 91,30 %
03.12.2016 02:04 -1,2 C -2,8 C -3,3 C 95 % 2 lf 1023,9 hPa 0,0 l/m 0 min 0 min 0 W/m 0,0 km/h (0 Bft) 95,74 %
03.12.2016 02:06 -1,2 C -2,8 C -3,3 C 95 % 2 lf 1024,0 hPa 0,0 l/m 0 min 0 min 0 W/m 0,0 km/h (0 Bft) 93,62 %
03.12.2016 02:08 -1,2 C -2,8 C -3,3 C 95 % 2 lf 1024,0 hPa 0,0 l/m 0 min 0 min 0 W/m 0,0 km/h (0 Bft) 95,74 %
03.12.2016 02:10 -1,2 C -2,2 C -2,8 C 95 % 2 lf 1024,0 hPa 0,0 l/m 0 min 0 min 0 W/m 0,0 km/h (0 Bft) 93,62 %
03.12.2016 02:12 -1,2 C -2,2 C -2,8 C 95 % 2 lf 1024,0 hPa 0,0 l/m 0 min 0 min 0 W/m 0,0 km/h (0 Bft) 93,62 %
03.12.2016 02:14 -1,2 C -1,7 C -2,8 C 95 % 2 lf 1023,9 hPa 0,0 l/m 0 min 0 min 0 W/m 0,0 km/h (0 Bft) 95,65 %
03.12.2016 02:16 -1,2 C -2,2 C -3,3 C 95 % 2 lf 1023,9 hPa 0,0 l/m 0 min 0 min 0 W/m 0,0 km/h (0 Bft) 93,62 %
03.12.2016 02:18 -1,3 C -2,2 C -3,3 C 95 % 2 lf 1024,0 hPa 0,0 l/m 0 min 0 min 0 W/m 0,0 km/h (0 Bft) 97,87 %
03.12.2016 02:20 -1,3 C -2,2 C -3,3 C 95 % 2 lf 1024,0 hPa 0,0 l/m 0 min 0 min 0 W/m 0,0 km/h (0 Bft) 97,87 %
03.12.2016 02:22 -1,3 C -2,2 C -3,3 C 95 % 2 lf 1023,9 hPa 0,0 l/m 0 min 0 min 0 W/m 0,0 km/h (0 Bft) 95,74 %
03.12.2016 02:24 -1,3 C -2,2 C -3,3 C 95 % 2 lf 1023,9 hPa 0,0 l/m 0 min 0 min 0 W/m 0,0 km/h (0 Bft) 95,65 %
03.12.2016 02:26 -1,3 C -2,2 C -3,3 C 95 % 2 lf 1023,9 hPa 0,0 l/m 0 min 0 min 0 W/m 0,0 km/h (0 Bft) 97,87 %
03.12.2016 02:28 -1,3 C -2,8 C -3,3 C 95 % 2 lf 1024,0 hPa 0,0 l/m 0 min 0 min 0 W/m 0,0 km/h (0 Bft) 97,87 %
03.12.2016 02:30 -1,3 C -2,8 C -3,3 C 95 % 2 lf 1023,9 hPa 0,0 l/m 0 min 0 min 0 W/m 0,0 km/h (0 Bft) 97,87 %
03.12.2016 02:32 -1,3 C -2,8 C -3,3 C 95 % 2 lf 1024,0 hPa 0,0 l/m 0 min 0 min 0 W/m 0,0 km/h (0 Bft) 93,62 %
03.12.2016 02:34 -1,3 C -2,8 C -3,3 C 95 % 2 lf 1024,0 hPa 0,0 l/m 0 min 0 min 0 W/m 4,2 km/h (1 Bft) 97,87 %
03.12.2016 02:36 -1,3 C -2,2 C -3,3 C 95 % 2 lf 1024,0 hPa 0,0 l/m 0 min 0 min 0 W/m 4,2 km/h (1 Bft) 97,83 %
03.12.2016 02:38 -1,3 C -2,2 C -3,3 C 95 % 2 lf 1024,0 hPa 0,0 l/m 0 min 0 min 0 W/m 0,0 km/h (0 Bft) 97,87 %
03.12.2016 02:40 -1,4 C -2,2 C -3,3 C 95 % 2 lf 1024,0 hPa 0,0 l/m 0 min 0 min 0 W/m 0,0 km/h (0 Bft) 93,62 %
03.12.2016 02:42 -1,4 C -2,2 C -3,3 C 95 % 2 lf 1024,0 hPa 0,0 l/m 0 min 0 min 0 W/m 0,0 km/h (0 Bft) 97,87 %
03.12.2016 02:44 -1,4 C -1,7 C -3,3 C 95 % 2 lf 1024,0 hPa 0,0 l/m 0 min 0 min 0 W/m 2,1 km/h (1 Bft) 95,74 %
03.12.2016 02:46 -1,4 C -1,7 C -3,3 C 95 % 2 lf 1024,0 hPa 0,0 l/m 0 min 0 min 0 W/m 2,1 km/h (1 Bft) 97,87 %
03.12.2016 02:48 -1,4 C -1,7 C -3,3 C 95 % 2 lf 1024,0 hPa 0,0 l/m 0 min 0 min 0 W/m 0,0 km/h (0 Bft) 91,30 %
03.12.2016 02:50 -1,4 C -1,7 C -3,3 C 95 % 2 lf 1024,0 hPa 0,0 l/m 0 min 0 min 0 W/m 2,1 km/h (1 Bft) 93,62 %
03.12.2016 02:52 -1,4 C -1,7 C -3,3 C 95 % 2 lf 1024,1 hPa 0,0 l/m 0 min 0 min 0 W/m 2,1 km/h (1 Bft) 95,74 %
03.12.2016 02:54 -1,4 C -1,7 C -3,3 C 95 % 2 lf 1024,0 hPa 0,0 l/m 0 min 0 min 0 W/m 2,1 km/h (1 Bft) 93,62 %
03.12.2016 02:56 -1,5 C -1,7 C -3,3 C 95 % 2 lf 1024,1 hPa 0,0 l/m 0 min 0 min 0 W/m 2,1 km/h (1 Bft) 97,87 %
03.12.2016 02:58 -1,5 C -2,2 C -3,3 C 95 % 2 lf 1024,0 hPa 0,0 l/m 0 min 0 min 0 W/m 0,0 km/h (0 Bft) 97,87 %
03.12.2016 03:00 -1,5 C -2,2 C -3,3 C 95 % 2 lf 1024,0 hPa 0,0 l/m 0 min 0 min 0 W/m 0,0 km/h (0 Bft) 93,48 %
03.12.2016 03:02 -1,5 C -2,8 C -3,3 C 95 % 2 lf 1024,0 hPa 0,0 l/m 0 min 0 min 0 W/m 0,0 km/h (0 Bft) 95,74 %
03.12.2016 03:04 -1,5 C -2,8 C -3,3 C 95 % 2 lf 1024,0 hPa 0,0 l/m 0 min 0 min 0 W/m 4,2 km/h (1 Bft) 95,74 %
03.12.2016 03:06 -1,6 C -2,8 C -3,3 C 95 % 2 lf 1024,0 hPa 0,0 l/m 0 min 0 min 0 W/m 2,1 km/h (1 Bft) 97,87 %
03.12.2016 03:08 -1,6 C -2,2 C -3,3 C 95 % 2 lf 1024,1 hPa 0,0 l/m 0 min 0 min 0 W/m 2,1 km/h (1 Bft) 95,74 %
03.12.2016 03:10 -1,6 C -2,2 C -3,9 C 95 % 1 lf 1024,1 hPa 0,0 l/m 0 min 0 min 0 W/m 0,0 km/h (0 Bft) 89,36 %
03.12.2016 03:12 -1,6 C -2,2 C -3,9 C 95 % 2 lf 1024,1 hPa 0,0 l/m 0 min 0 min 0 W/m 0,0 km/h (0 Bft) 95,65 %
03.12.2016 03:14 -1,6 C -2,8 C -3,9 C 95 % 1 lf 1024,0 hPa 0,0 l/m 0 min 0 min 0 W/m 0,0 km/h (0 Bft) 97,87 %
03.12.2016 03:16 -1,6 C -2,8 C -3,9 C 95 % 1 lf 1024,0 hPa 0,0 l/m 0 min 0 min 0 W/m 0,0 km/h (0 Bft) 97,87 %
03.12.2016 03:18 -1,6 C -2,8 C -3,9 C 95 % 1 lf 1024,1 hPa 0,0 l/m 0 min 0 min 0 W/m 0,0 km/h (0 Bft) 93,62 %
03.12.2016 03:20 -1,6 C -2,8 C -3,9 C 95 % 1 lf 1024,1 hPa 0,0 l/m 0 min 0 min 0 W/m 0,0 km/h (0 Bft) 93,62 %
03.12.2016 03:22 -1,6 C -2,8 C -3,9 C 95 % 2 lf 1024,1 hPa 0,0 l/m 0 min 0 min 0 W/m 0,0 km/h (0 Bft) 97,87 %
03.12.2016 03:24 -1,6 C -2,8 C -3,9 C 95 % 1 lf 1024,0 hPa 0,0 l/m 0 min 0 min 0 W/m 0,0 km/h (0 Bft) 97,83 %
03.12.2016 03:26 -1,7 C -2,8 C -3,9 C 95 % 1 lf 1024,1 hPa 0,0 l/m 0 min 0 min 0 W/m 0,0 km/h (0 Bft) 97,87 %
03.12.2016 03:28 -1,7 C -2,8 C -3,9 C 95 % 1 lf 1024,1 hPa 0,0 l/m 0 min 0 min 0 W/m 0,0 km/h (0 Bft) 100,00 %
03.12.2016 03:30 -1,7 C -2,8 C -3,9 C 95 % 1 lf 1024,0 hPa 0,0 l/m 0 min 0 min 0 W/m 0,0 km/h (0 Bft) 95,74 %
03.12.2016 03:32 -1,7 C -2,8 C -3,9 C 95 % 1 lf 1024,0 hPa 0,0 l/m 0 min 0 min 0 W/m 0,0 km/h (0 Bft) 97,87 %
03.12.2016 03:34 -1,7 C -2,8 C -3,9 C 95 % 1 lf 1024,0 hPa 0,0 l/m 0 min 0 min 0 W/m 0,0 km/h (0 Bft) 95,65 %
03.12.2016 03:36 -1,7 C -2,8 C -3,9 C 95 % 1 lf 1024,0 hPa 0,0 l/m 0 min 0 min 0 W/m 0,0 km/h (0 Bft) 93,62 %
03.12.2016 03:38 -1,7 C -2,8 C -3,9 C 95 % 1 lf 1024,0 hPa 0,0 l/m 0 min 0 min 0 W/m 0,0 km/h (0 Bft) 95,74 %
03.12.2016 03:40 -1,8 C -2,8 C -3,9 C 95 % 1 lf 1024,1 hPa 0,0 l/m 0 min 0 min 0 W/m 0,0 km/h (0 Bft) 93,62 %
03.12.2016 03:42 -1,8 C -2,8 C -3,9 C 95 % 1 lf 1024,1 hPa 0,0 l/m 0 min 0 min 0 W/m 0,0 km/h (0 Bft) 97,87 %
03.12.2016 03:44 -1,8 C -2,8 C -3,9 C 95 % 1 lf 1024,1 hPa 0,0 l/m 0 min 0 min 0 W/m 2,1 km/h (1 Bft) 95,74 %
03.12.2016 03:46 -1,8 C -3,3 C -3,9 C 95 % 1 lf 1024,0 hPa 0,0 l/m 0 min 0 min 0 W/m 0,0 km/h (0 Bft) 97,83 %
03.12.2016 03:48 -1,8 C -3,3 C -3,9 C 95 % 1 lf 1024,0 hPa 0,0 l/m 0 min 0 min 0 W/m 0,0 km/h (0 Bft) 97,87 %
03.12.2016 03:50 -1,8 C -2,8 C -3,9 C 95 % 1 lf 1024,1 hPa 0,0 l/m 0 min 0 min 0 W/m 0,0 km/h (0 Bft) 97,87 %
03.12.2016 03:52 -1,8 C -2,8 C -3,9 C 95 % 1 lf 1024,0 hPa 0,0 l/m 0 min 0 min 0 W/m 0,0 km/h (0 Bft) 97,87 %
03.12.2016 03:54 -1,9 C -2,2 C -3,9 C 95 % 1 lf 1024,1 hPa 0,0 l/m 0 min 0 min 0 W/m 0,0 km/h (0 Bft) 93,62 %
03.12.2016 03:56 -1,9 C -2,2 C -3,9 C 95 % 1 lf 1024,1 hPa 0,0 l/m 0 min 0 min 0 W/m 0,0 km/h (0 Bft) 95,74 %
03.12.2016 03:58 -1,9 C -2,2 C -3,9 C 95 % 1 lf 1024,1 hPa 0,0 l/m 0 min 0 min 0 W/m 0,0 km/h (0 Bft) 95,65 %
03.12.2016 04:00 -1,9 C -2,8 C -3,9 C 95 % 1 lf 1024,1 hPa 0,0 l/m 0 min 0 min 0 W/m 0,0 km/h (0 Bft) 97,87 %
03.12.2016 04:05 -1,9 C -2,2 C -3,9 C 95 % 1 lf 1024,1 hPa 0,0 l/m 0 min 0 min 0 W/m 0,0 km/h (0 Bft) 94,03 %
03.12.2016 04:06 -1,9 C -2,2 C -3,9 C 95 % 1 lf 1024,1 hPa 0,0 l/m 0 min 0 min 0 W/m 0,0 km/h (0 Bft) 100,00 %
03.12.2016 04:08 -2,0 C -2,2 C -3,9 C 95 % 1 lf 1024,2 hPa 0,0 l/m 0 min 0 min 0 W/m 0,0 km/h (0 Bft) 97,87 %
03.12.2016 04:10 -2,0 C -2,8 C -3,9 C 95 % 1 lf 1024,1 hPa 0,0 l/m 0 min 0 min 0 W/m 0,0 km/h (0 Bft) 95,65 %
03.12.2016 04:12 -2,0 C -2,8 C -3,9 C 95 % 1 lf 1024,1 hPa 0,0 l/m 0 min 0 min 0 W/m 0,0 km/h (0 Bft) 93,62 %
03.12.2016 04:14 -2,0 C -2,8 C -3,9 C 95 % 1 lf 1024,2 hPa 0,0 l/m 0 min 0 min 0 W/m 0,0 km/h (0 Bft) 97,87 %
03.12.2016 04:16 -2,0 C -2,8 C -3,9 C 95 % 1 lf 1024,2 hPa 0,0 l/m 0 min 0 min 0 W/m 0,0 km/h (0 Bft) 97,87 %
03.12.2016 04:18 -2,1 C -2,8 C -3,9 C 95 % 1 lf 1024,1 hPa 0,0 l/m 0 min 0 min 0 W/m 0,0 km/h (0 Bft) 95,74 %
03.12.2016 04:20 -2,1 C -3,3 C -3,9 C 95 % 1 lf 1024,1 hPa 0,0 l/m 0 min 0 min 0 W/m 0,0 km/h (0 Bft) 95,74 %
03.12.2016 04:22 -2,1 C -2,8 C -3,9 C 95 % 1 lf 1024,1 hPa 0,0 l/m 0 min 0 min 0 W/m 0,0 km/h (0 Bft) 95,65 %
03.12.2016 04:24 -2,1 C -2,8 C -3,9 C 95 % 1 lf 1024,1 hPa 0,0 l/m 0 min 0 min 0 W/m 0,0 km/h (0 Bft) 97,87 %
03.12.2016 04:26 -2,1 C -2,8 C -3,9 C 95 % 1 lf 1024,1 hPa 0,0 l/m 0 min 0 min 0 W/m 0,0 km/h (0 Bft) 95,74 %
03.12.2016 04:28 -2,1 C -3,3 C -3,9 C 95 % 1 lf 1024,1 hPa 0,0 l/m 0 min 0 min 0 W/m 0,0 km/h (0 Bft) 93,62 %
03.12.2016 04:30 -2,1 C -3,3 C -3,9 C 95 % 1 lf 1024,1 hPa 0,0 l/m 0 min 0 min 0 W/m 0,0 km/h (0 Bft) 97,87 %
03.12.2016 04:32 -2,1 C -3,3 C -3,9 C 95 % 1 lf 1024,1 hPa 0,0 l/m 0 min 0 min 0 W/m 0,0 km/h (0 Bft) 97,83 %
03.12.2016 04:34 -2,1 C -3,3 C -3,9 C 95 % 1 lf 1024,1 hPa 0,0 l/m 0 min 0 min 0 W/m 0,0 km/h (0 Bft) 95,74 %
03.12.2016 04:36 -2,2 C -3,3 C -4,4 C 95 % 1 lf 1024,1 hPa 0,0 l/m 0 min 0 min 0 W/m 0,0 km/h (0 Bft) 95,74 %
03.12.2016 04:38 -2,2 C -3,3 C -3,9 C 95 % 1 lf 1024,1 hPa 0,0 l/m 0 min 0 min 0 W/m 0,0 km/h (0 Bft) 93,62 %
03.12.2016 04:40 -2,2 C -3,3 C -3,9 C 95 % 1 lf 1024,1 hPa 0,0 l/m 0 min 0 min 0 W/m 0,0 km/h (0 Bft) 95,74 %
03.12.2016 04:42 -2,2 C -3,3 C -3,9 C 95 % 1 lf 1024,1 hPa 0,0 l/m 0 min 0 min 0 W/m 0,0 km/h (0 Bft) 97,87 %
03.12.2016 04:44 -2,2 C -3,9 C -4,4 C 95 % 1 lf 1024,1 hPa 0,0 l/m 0 min 0 min 0 W/m 0,0 km/h (0 Bft) 97,87 %
03.12.2016 04:46 -2,2 C -3,3 C -4,4 C 95 % 1 lf 1024,1 hPa 0,0 l/m 0 min 0 min 0 W/m 0,0 km/h (0 Bft) 95,65 %
03.12.2016 04:48 -2,2 C -3,3 C -4,4 C 95 % 1 lf 1024,1 hPa 0,0 l/m 0 min 0 min 0 W/m 0,0 km/h (0 Bft) 93,62 %
03.12.2016 04:50 -2,2 C -3,3 C -3,9 C 95 % 1 lf 1024,1 hPa 0,0 l/m 0 min 0 min 0 W/m 0,0 km/h (0 Bft) 100,00 %
03.12.2016 04:52 -2,2 C -3,3 C -3,9 C 95 % 1 lf 1024,1 hPa 0,0 l/m 0 min 0 min 0 W/m 0,0 km/h (0 Bft) 97,87 %
03.12.2016 04:54 -2,2 C -3,3 C -3,9 C 95 % 1 lf 1024,0 hPa 0,0 l/m 0 min 0 min 0 W/m 0,0 km/h (0 Bft) 100,00 %
03.12.2016 04:56 -2,2 C -3,3 C -3,9 C 95 % 1 lf 1024,1 hPa 0,0 l/m 0 min 0 min 0 W/m 0,0 km/h (0 Bft) 97,83 %
03.12.2016 04:58 -2,3 C -3,3 C -4,4 C 95 % 1 lf 1024,1 hPa 0,0 l/m 0 min 0 min 0 W/m 0,0 km/h (0 Bft) 100,00 %
03.12.2016 05:00 -2,3 C -3,3 C -4,4 C 95 % 1 lf 1024,0 hPa 0,0 l/m 0 min 0 min 0 W/m 0,0 km/h (0 Bft) 100,00 %
03.12.2016 05:02 -2,3 C -3,9 C -4,4 C 95 % 1 lf 1024,0 hPa 0,0 l/m 0 min 0 min 0 W/m 0,0 km/h (0 Bft) 100,00 %
03.12.2016 05:04 -2,3 C -3,9 C -4,4 C 95 % 1 lf 1024,0 hPa 0,0 l/m 0 min 0 min 0 W/m 0,0 km/h (0 Bft) 97,87 %
03.12.2016 05:06 -2,3 C -3,9 C -4,4 C 95 % 1 lf 1024,1 hPa 0,0 l/m 0 min 0 min 0 W/m 0,0 km/h (0 Bft) 95,74 %
03.12.2016 05:08 -2,3 C -3,9 C -4,4 C 95 % 1 lf 1024,0 hPa 0,0 l/m 0 min 0 min 0 W/m 0,0 km/h (0 Bft) 95,65 %
03.12.2016 05:10 -2,3 C -3,3 C -4,4 C 95 % 1 lf 1024,0 hPa 0,0 l/m 0 min 0 min 0 W/m 0,0 km/h (0 Bft) 97,87 %
03.12.2016 05:12 -2,3 C -3,9 C -4,4 C 95 % 1 lf 1024,0 hPa 0,0 l/m 0 min 0 min 0 W/m 0,0 km/h (0 Bft) 97,87 %
03.12.2016 05:14 -2,4 C -3,9 C -4,4 C 95 % 1 lf 1024,0 hPa 0,0 l/m 0 min 0 min 0 W/m 0,0 km/h (0 Bft) 100,00 %
03.12.2016 05:16 -2,4 C -3,3 C -3,9 C 95 % 1 lf 1024,1 hPa 0,0 l/m 0 min 0 min 0 W/m 0,0 km/h (0 Bft) 95,74 %
03.12.2016 05:18 -2,4 C -3,3 C -4,4 C 95 % 1 lf 1024,1 hPa 0,0 l/m 0 min 0 min 0 W/m 0,0 km/h (0 Bft) 93,62 %
03.12.2016 05:20 -2,4 C -3,3 C -3,9 C 95 % 1 lf 1024,1 hPa 0,0 l/m 0 min 0 min 0 W/m 0,0 km/h (0 Bft) 93,48 %
03.12.2016 05:22 -2,4 C -2,8 C -3,9 C 95 % 1 lf 1024,1 hPa 0,0 l/m 0 min 0 min 0 W/m 0,0 km/h (0 Bft) 95,74 %
03.12.2016 05:24 -2,4 C -2,8 C -4,4 C 95 % 1 lf 1024,1 hPa 0,0 l/m 0 min 0 min 0 W/m 0,0 km/h (0 Bft) 95,74 %
03.12.2016 05:26 -2,4 C -2,8 C -4,4 C 95 % 1 lf 1024,1 hPa 0,0 l/m 0 min 0 min 0 W/m 0,0 km/h (0 Bft) 93,62 %
03.12.2016 05:28 -2,4 C -2,8 C -4,4 C 95 % 1 lf 1024,0 hPa 0,0 l/m 0 min 0 min 0 W/m 0,0 km/h (0 Bft) 89,36 %
03.12.2016 05:30 -2,4 C -2,8 C -4,4 C 95 % 1 lf 1024,0 hPa 0,0 l/m 0 min 0 min 0 W/m 0,0 km/h (0 Bft) 91,30 %
03.12.2016 05:32 -2,4 C -2,8 C -4,4 C 95 % 1 lf 1024,0 hPa 0,0 l/m 0 min 0 min 0 W/m 0,0 km/h (0 Bft) 93,62 %
03.12.2016 05:34 -2,4 C -2,8 C -4,4 C 95 % 1 lf 1024,0 hPa 0,0 l/m 0 min 0 min 0 W/m 0,0 km/h (0 Bft) 91,49 %
03.12.2016 05:36 -2,4 C -2,8 C -4,4 C 95 % 1 lf 1024,1 hPa 0,0 l/m 0 min 0 min 0 W/m 0,0 km/h (0 Bft) 95,74 %
03.12.2016 05:38 -2,4 C -2,8 C -4,4 C 95 % 1 lf 1024,0 hPa 0,0 l/m 0 min 0 min 0 W/m 0,0 km/h (0 Bft) 95,74 %
03.12.2016 05:40 -2,5 C -3,3 C -4,4 C 95 % 1 lf 1024,0 hPa 0,0 l/m 0 min 0 min 0 W/m 0,0 km/h (0 Bft) 95,74 %
03.12.2016 05:42 -2,5 C -3,3 C -4,4 C 95 % 1 lf 1024,0 hPa 0,0 l/m 0 min 0 min 0 W/m 0,0 km/h (0 Bft) 91,30 %
03.12.2016 05:44 -2,5 C -3,3 C -4,4 C 95 % 1 lf 1024,0 hPa 0,0 l/m 0 min 0 min 0 W/m 0,0 km/h (0 Bft) 91,49 %
03.12.2016 05:46 -2,5 C -3,3 C -4,4 C 95 % 1 lf 1024,0 hPa 0,0 l/m 0 min 0 min 0 W/m 0,0 km/h (0 Bft) 93,62 %
03.12.2016 05:48 -2,5 C -3,3 C -4,4 C 95 % 1 lf 1024,0 hPa 0,0 l/m 0 min 0 min 0 W/m 0,0 km/h (0 Bft) 95,74 %
03.12.2016 05:50 -2,6 C -3,9 C -4,4 C 95 % 1 lf 1024,1 hPa 0,0 l/m 0 min 0 min 0 W/m 0,0 km/h (0 Bft) 95,74 %
03.12.2016 05:52 -2,6 C -3,9 C -4,4 C 95 % 1 lf 1024,1 hPa 0,0 l/m 0 min 0 min 0 W/m 2,1 km/h (1 Bft) 91,49 %
03.12.2016 05:54 -2,6 C -3,3 C -3,9 C 95 % 1 lf 1024,2 hPa 0,0 l/m 0 min 0 min 0 W/m 2,1 km/h (1 Bft) 93,48 %
03.12.2016 05:56 -2,6 C -3,3 C -3,9 C 95 % 1 lf 1024,1 hPa 0,0 l/m 0 min 0 min 0 W/m 2,1 km/h (1 Bft) 95,74 %
03.12.2016 05:58 -2,6 C -3,3 C -3,9 C 95 % 1 lf 1024,1 hPa 0,0 l/m 0 min 0 min 0 W/m 2,1 km/h (1 Bft) 95,74 %
03.12.2016 06:00 -2,6 C -3,3 C -3,9 C 95 % 1 lf 1024,1 hPa 0,0 l/m 0 min 0 min 0 W/m 0,0 km/h (0 Bft) 95,74 %
03.12.2016 06:02 -2,6 C -2,8 C -3,9 C 95 % 1 lf 1024,1 hPa 0,0 l/m 0 min 0 min 0 W/m 0,0 km/h (0 Bft) 95,74 %
03.12.2016 06:06 -2,6 C -2,8 C -4,4 C 95 % 1 lf 1024,1 hPa 0,0 l/m 0 min 0 min 0 W/m 0,0 km/h (0 Bft) 95,70 %
03.12.2016 06:08 -2,6 C -3,3 C -4,4 C 95 % 1 lf 1024,2 hPa 0,0 l/m 0 min 0 min 0 W/m 0,0 km/h (0 Bft) 95,74 %
03.12.2016 06:10 -2,6 C -3,3 C -4,4 C 95 % 1 lf 1024,3 hPa 0,0 l/m 0 min 0 min 0 W/m 0,0 km/h (0 Bft) 93,62 %
03.12.2016 06:12 -2,6 C -3,3 C -4,4 C 95 % 1 lf 1024,3 hPa 0,0 l/m 0 min 0 min 0 W/m 0,0 km/h (0 Bft) 93,62 %
03.12.2016 06:14 -2,6 C -3,3 C -4,4 C 95 % 1 lf 1024,2 hPa 0,0 l/m 0 min 0 min 0 W/m 0,0 km/h (0 Bft) 93,62 %
03.12.2016 06:16 -2,6 C -3,3 C -4,4 C 95 % 1 lf 1024,3 hPa 0,0 l/m 0 min 0 min 0 W/m 0,0 km/h (0 Bft) 95,74 %
03.12.2016 06:18 -2,6 C -3,3 C -4,4 C 95 % 1 lf 1024,3 hPa 0,0 l/m 0 min 0 min 0 W/m 0,0 km/h (0 Bft) 93,48 %
03.12.2016 06:20 -2,6 C -3,3 C -4,4 C 95 % 1 lf 1024,4 hPa 0,0 l/m 0 min 0 min 0 W/m 0,0 km/h (0 Bft) 93,62 %
03.12.2016 06:22 -2,7 C -3,3 C -4,4 C 95 % 1 lf 1024,4 hPa 0,0 l/m 0 min 0 min 0 W/m 2,1 km/h (1 Bft) 93,62 %
03.12.2016 06:24 -2,7 C -3,3 C -3,9 C 95 % 1 lf 1024,4 hPa 0,0 l/m 0 min 0 min 0 W/m 2,1 km/h (1 Bft) 95,74 %
03.12.2016 06:26 -2,7 C -3,3 C -3,9 C 95 % 1 lf 1024,4 hPa 0,0 l/m 0 min 0 min 0 W/m 2,1 km/h (1 Bft) 95,74 %
03.12.2016 06:28 -2,7 C -3,3 C -3,9 C 95 % 1 lf 1024,4 hPa 0,0 l/m 0 min 0 min 1 W/m 2,1 km/h (1 Bft) 95,74 %
03.12.2016 06:30 -2,7 C -3,3 C -4,4 C 95 % 1 lf 1024,5 hPa 0,0 l/m 0 min 0 min 1 W/m 0,0 km/h (0 Bft) 91,30 %
03.12.2016 06:32 -2,7 C -3,3 C -4,4 C 95 % 1 lf 1024,5 hPa 0,0 l/m 0 min 0 min 1 W/m 0,0 km/h (0 Bft) 93,62 %
03.12.2016 06:34 -2,7 C -3,3 C -4,4 C 95 % 1 lf 1024,6 hPa 0,0 l/m 0 min 0 min 3 W/m 0,0 km/h (0 Bft) 93,62 %
03.12.2016 06:36 -2,7 C -3,3 C -4,4 C 95 % 1 lf 1024,6 hPa 0,0 l/m 0 min 0 min 4 W/m 0,0 km/h (0 Bft) 91,49 %
03.12.2016 06:38 -2,7 C -3,9 C -4,4 C 95 % 1 lf 1024,6 hPa 0,0 l/m 0 min 0 min 3 W/m 2,1 km/h (1 Bft) 93,62 %
03.12.2016 06:40 -2,7 C -3,9 C -4,4 C 95 % 1 lf 1024,6 hPa 0,0 l/m 0 min 0 min 4 W/m 2,1 km/h (1 Bft) 95,65 %
03.12.2016 06:42 -2,7 C -3,3 C -4,4 C 95 % 1 lf 1024,6 hPa 0,0 l/m 0 min 0 min 3 W/m 0,0 km/h (0 Bft) 93,62 %
03.12.2016 06:44 -2,7 C -3,3 C -4,4 C 95 % 1 lf 1024,5 hPa 0,0 l/m 0 min 0 min 4 W/m 0,0 km/h (0 Bft) 95,74 %
03.12.2016 06:46 -2,7 C -3,3 C -4,4 C 95 % 1 lf 1024,6 hPa 0,0 l/m 0 min 0 min 5 W/m 0,0 km/h (0 Bft) 93,62 %
03.12.2016 06:48 -2,7 C -3,3 C -4,4 C 95 % 1 lf 1024,6 hPa 0,0 l/m 0 min 0 min 5 W/m 0,0 km/h (0 Bft) 93,62 %
03.12.2016 06:50 -2,7 C -3,3 C -4,4 C 95 % 1 lf 1024,6 hPa 0,0 l/m 0 min 0 min 0 W/m 2,1 km/h (1 Bft) 93,62 %
03.12.2016 06:52 -2,7 C -3,3 C -4,4 C 95 % 1 lf 1024,5 hPa 0,0 l/m 0 min 0 min 0 W/m 0,0 km/h (0 Bft) 95,65 %
03.12.2016 06:54 -2,7 C -3,3 C -4,4 C 95 % 1 lf 1024,4 hPa 0,0 l/m 0 min 0 min 0 W/m 0,0 km/h (0 Bft) 91,49 %
03.12.2016 06:56 -2,7 C -3,3 C -4,4 C 95 % 1 lf 1024,4 hPa 0,0 l/m 0 min 0 min 0 W/m 2,1 km/h (1 Bft) 93,62 %
03.12.2016 06:58 -2,7 C -2,8 C -4,4 C 95 % 1 lf 1024,4 hPa 0,0 l/m 0 min 0 min 0 W/m 4,2 km/h (1 Bft) 97,87 %
03.12.2016 07:00 -2,7 C -3,3 C -4,4 C 95 % 1 lf 1024,4 hPa 0,0 l/m 0 min 0 min 0 W/m 2,1 km/h (1 Bft) 93,62 %
03.12.2016 07:02 -2,8 C -3,3 C -4,4 C 95 % 1 lf 1024,5 hPa 0,0 l/m 0 min 0 min 0 W/m 0,0 km/h (0 Bft) 87,23 %
03.12.2016 07:04 -2,8 C -3,3 C -4,4 C 95 % 1 lf 1024,6 hPa 0,0 l/m 0 min 0 min 0 W/m 2,1 km/h (1 Bft) 95,65 %
03.12.2016 07:06 -2,8 C -2,8 C -4,4 C 95 % 1 lf 1024,6 hPa 0,0 l/m 0 min 0 min 0 W/m 0,0 km/h (0 Bft) 93,62 %
03.12.2016 07:08 -2,8 C -2,8 C -4,4 C 95 % 1 lf 1024,6 hPa 0,0 l/m 0 min 0 min 0 W/m 4,2 km/h (1 Bft) 93,62 %
03.12.2016 07:10 -2,8 C -2,8 C -3,9 C 95 % 1 lf 1024,6 hPa 0,0 l/m 0 min 0 min 0 W/m 2,1 km/h (1 Bft) 95,74 %
03.12.2016 07:12 -2,8 C -2,2 C -3,9 C 95 % 1 lf 1024,6 hPa 0,0 l/m 0 min 0 min 4 W/m 4,2 km/h (1 Bft) 95,74 %
03.12.2016 07:14 -2,8 C -2,2 C -3,9 C 95 % 1 lf 1024,7 hPa 0,0 l/m 0 min 0 min 2 W/m 4,2 km/h (1 Bft) 97,87 %
03.12.2016 07:16 -2,8 C -2,2 C -3,9 C 95 % 1 lf 1024,7 hPa 0,0 l/m 0 min 0 min 2 W/m 2,1 km/h (1 Bft) 97,83 %
03.12.2016 07:18 -2,8 C -2,8 C -3,9 C 95 % 1 lf 1024,7 hPa 0,0 l/m 0 min 0 min 2 W/m 0,0 km/h (0 Bft) 93,62 %
03.12.2016 07:20 -2,8 C -2,2 C -3,3 C 95 % 1 lf 1024,7 hPa 0,0 l/m 0 min 0 min 2 W/m 2,1 km/h (1 Bft) 97,87 %
03.12.2016 07:22 -2,7 C -2,2 C -3,3 C 95 % 1 lf 1024,8 hPa 0,0 l/m 0 min 0 min 2 W/m 2,1 km/h (1 Bft) 95,74 %
03.12.2016 07:24 -2,7 C -2,2 C -3,3 C 95 % 1 lf 1024,8 hPa 0,0 l/m 0 min 0 min 2 W/m 0,0 km/h (0 Bft) 95,74 %
03.12.2016 07:26 -2,7 C -2,2 C -3,3 C 95 % 1 lf 1024,8 hPa 0,0 l/m 0 min 0 min 2 W/m 0,0 km/h (0 Bft) 97,87 %
03.12.2016 07:28 -2,7 C -2,2 C -3,3 C 96 % 1 lf 1024,8 hPa 0,0 l/m 0 min 0 min 4 W/m 0,0 km/h (0 Bft) 93,48 %
03.12.2016 07:30 -2,7 C -2,2 C -3,3 C 96 % 1 lf 1024,8 hPa 0,0 l/m 0 min 0 min 5 W/m 2,1 km/h (1 Bft) 97,87 %
03.12.2016 07:32 -2,7 C -2,2 C -3,3 C 96 % 1 lf 1024,9 hPa 0,0 l/m 0 min 0 min 0 W/m 2,1 km/h (1 Bft) 97,87 %
03.12.2016 07:34 -2,7 C -2,2 C -3,3 C 96 % 1 lf 1024,9 hPa 0,0 l/m 0 min 0 min 0 W/m 0,0 km/h (0 Bft) 93,62 %
03.12.2016 07:36 -2,7 C -2,2 C -3,3 C 96 % 1 lf 1024,9 hPa 0,0 l/m 0 min 0 min 0 W/m 2,1 km/h (1 Bft) 95,74 %
03.12.2016 07:38 -2,7 C -2,2 C -3,3 C 96 % 1 lf 1024,9 hPa 0,0 l/m 0 min 0 min 0 W/m 0,0 km/h (0 Bft) 100,00 %
03.12.2016 07:40 -2,7 C -2,2 C -3,9 C 96 % 1 lf 1024,9 hPa 0,0 l/m 0 min 0 min 0 W/m 0,0 km/h (0 Bft) 100,00 %
03.12.2016 07:42 -2,7 C -2,8 C -3,9 C 96 % 1 lf 1024,9 hPa 0,0 l/m 0 min 0 min 0 W/m 0,0 km/h (0 Bft) 100,00 %
03.12.2016 07:44 -2,7 C -2,8 C -3,9 C 96 % 1 lf 1024,9 hPa 0,0 l/m 0 min 0 min 0 W/m 0,0 km/h (0 Bft) 100,00 %
03.12.2016 07:46 -2,7 C -2,8 C -3,9 C 96 % 1 lf 1024,9 hPa 0,0 l/m 0 min 0 min 0 W/m 0,0 km/h (0 Bft) 95,74 %
03.12.2016 07:48 -2,7 C -2,8 C -3,9 C 96 % 1 lf 1024,9 hPa 0,0 l/m 0 min 0 min 0 W/m 0,0 km/h (0 Bft) 95,74 %
03.12.2016 07:50 -2,6 C -2,8 C -3,9 C 96 % 1 lf 1024,9 hPa 0,0 l/m 0 min 0 min 0 W/m 0,0 km/h (0 Bft) 97,83 %
03.12.2016 07:52 -2,6 C -2,8 C -3,9 C 96 % 1 lf 1024,9 hPa 0,0 l/m 0 min 0 min 0 W/m 0,0 km/h (0 Bft) 97,87 %
03.12.2016 07:54 -2,6 C -2,8 C -3,9 C 96 % 1 lf 1025,0 hPa 0,0 l/m 0 min 0 min 0 W/m 0,0 km/h (0 Bft) 100,00 %
03.12.2016 07:56 -2,6 C -2,8 C -3,9 C 96 % 1 lf 1024,9 hPa 0,0 l/m 0 min 0 min 0 W/m 0,0 km/h (0 Bft) 97,87 %
03.12.2016 07:58 -2,6 C -2,8 C -3,9 C 96 % 1 lf 1025,0 hPa 0,0 l/m 0 min 0 min 0 W/m 0,0 km/h (0 Bft) 97,87 %
03.12.2016 08:00 -2,6 C -2,8 C -4,4 C 96 % 1 lf 1024,9 hPa 0,0 l/m 0 min 0 min 0 W/m 0,0 km/h (0 Bft) 100,00 %
03.12.2016 08:02 -2,6 C -2,8 C -4,4 C 96 % 1 lf 1024,9 hPa 0,0 l/m 0 min 0 min 0 W/m 0,0 km/h (0 Bft) 95,65 %
03.12.2016 08:04 -2,6 C -2,8 C -4,4 C 96 % 1 lf 1024,9 hPa 0,0 l/m 0 min 0 min 7 W/m 0,0 km/h (0 Bft) 97,87 %
03.12.2016 08:06 -2,6 C -2,8 C -4,4 C 96 % 1 lf 1024,9 hPa 0,0 l/m 0 min 0 min 9 W/m 0,0 km/h (0 Bft) 100,00 %
03.12.2016 08:08 -2,6 C -2,8 C -4,4 C 96 % 1 lf 1024,9 hPa 0,0 l/m 0 min 0 min 9 W/m 0,0 km/h (0 Bft) 100,00 %
03.12.2016 08:10 -2,6 C -2,8 C -4,4 C 96 % 1 lf 1025,0 hPa 0,0 l/m 0 min 0 min 11 W/m 0,0 km/h (0 Bft) 100,00 %
03.12.2016 08:12 -2,6 C -3,3 C -4,4 C 96 % 1 lf 1025,0 hPa 0,0 l/m 0 min 0 min 11 W/m 0,0 km/h (0 Bft) 100,00 %
03.12.2016 08:14 -2,6 C -3,3 C -4,4 C 96 % 1 lf 1025,1 hPa 0,0 l/m 0 min 0 min 12 W/m 0,0 km/h (0 Bft) 97,83 %
03.12.2016 08:16 -2,6 C -3,3 C -4,4 C 96 % 1 lf 1025,1 hPa 0,0 l/m 0 min 0 min 13 W/m 0,0 km/h (0 Bft) 97,87 %
03.12.2016 08:18 -2,6 C -3,3 C -3,9 C 96 % 1 lf 1025,2 hPa 0,0 l/m 0 min 0 min 14 W/m 0,0 km/h (0 Bft) 95,74 %
03.12.2016 08:20 -2,6 C -3,3 C -3,9 C 96 % 1 lf 1025,2 hPa 0,0 l/m 0 min 0 min 14 W/m 0,0 km/h (0 Bft) 95,74 %
03.12.2016 08:22 -2,6 C -3,3 C -3,9 C 96 % 1 lf 1025,3 hPa 0,0 l/m 0 min 0 min 15 W/m 4,2 km/h (1 Bft) 97,87 %
03.12.2016 08:24 -2,6 C -3,3 C -3,9 C 96 % 1 lf 1025,2 hPa 0,0 l/m 0 min 0 min 16 W/m 6,3 km/h (2 Bft) 100,00 %
03.12.2016 08:26 -2,7 C -3,3 C -3,9 C 96 % 1 lf 1025,3 hPa 0,0 l/m 0 min 0 min 16 W/m 6,3 km/h (2 Bft) 95,65 %
03.12.2016 08:28 -2,7 C -3,3 C -3,9 C 96 % 1 lf 1025,2 hPa 0,0 l/m 0 min 0 min 17 W/m 4,2 km/h (1 Bft) 97,87 %
03.12.2016 08:30 -2,7 C -3,3 C -3,9 C 96 % 1 lf 1025,3 hPa 0,0 l/m 0 min 0 min 18 W/m 4,2 km/h (1 Bft) 97,87 %
03.12.2016 08:32 -2,7 C -3,3 C -4,4 C 96 % 1 lf 1025,3 hPa 0,0 l/m 0 min 0 min 20 W/m 2,1 km/h (1 Bft) 100,00 %
03.12.2016 08:34 -2,7 C -3,3 C -4,4 C 96 % 1 lf 1025,3 hPa 0,0 l/m 2 min 0 min 20 W/m 0,0 km/h (0 Bft) 100,00 %
03.12.2016 08:36 -2,7 C -3,3 C -4,4 C 96 % 1 lf 1025,3 hPa 0,0 l/m 2 min 0 min 21 W/m 0,0 km/h (0 Bft) 100,00 %
03.12.2016 08:38 -2,7 C -3,3 C -4,4 C 96 % 1 lf 1025,3 hPa 0,0 l/m 2 min 0 min 22 W/m 0,0 km/h (0 Bft) 100,00 %
03.12.2016 08:40 -2,7 C -3,3 C -4,4 C 96 % 1 lf 1025,3 hPa 0,0 l/m 2 min 0 min 24 W/m 2,1 km/h (1 Bft) 97,87 %
03.12.2016 08:42 -2,8 C -3,3 C -4,4 C 96 % 1 lf 1025,3 hPa 0,0 l/m 2 min 0 min 26 W/m 2,1 km/h (1 Bft) 97,87 %
03.12.2016 08:44 -2,8 C -3,3 C -3,9 C 96 % 1 lf 1025,3 hPa 0,0 l/m 2 min 0 min 27 W/m 2,1 km/h (1 Bft) 95,74 %
03.12.2016 08:46 -2,8 C -3,3 C -3,9 C 96 % 1 lf 1025,4 hPa 0,0 l/m 2 min 0 min 28 W/m 2,1 km/h (1 Bft) 100,00 %
03.12.2016 08:48 -2,8 C -3,3 C -3,9 C 96 % 1 lf 1025,4 hPa 0,0 l/m 2 min 0 min 30 W/m 2,1 km/h (1 Bft) 97,83 %
03.12.2016 08:50 -2,8 C -3,3 C -3,9 C 96 % 1 lf 1025,3 hPa 0,0 l/m 2 min 0 min 31 W/m 2,1 km/h (1 Bft) 97,87 %
03.12.2016 08:52 -2,8 C -3,3 C -3,9 C 96 % 1 lf 1025,4 hPa 0,0 l/m 2 min 0 min 33 W/m 2,1 km/h (1 Bft) 95,74 %
03.12.2016 08:54 -2,8 C -2,8 C -3,9 C 96 % 1 lf 1025,4 hPa 0,0 l/m 0 min 0 min 32 W/m 2,1 km/h (1 Bft) 95,74 %
03.12.2016 08:56 -2,9 C -2,8 C -3,9 C 96 % 1 lf 1025,4 hPa 0,0 l/m 0 min 0 min 34 W/m 0,0 km/h (0 Bft) 95,74 %
03.12.2016 08:58 -2,8 C -2,8 C -3,9 C 96 % 1 lf 1025,3 hPa 0,0 l/m 0 min 0 min 34 W/m 0,0 km/h (0 Bft) 93,62 %
03.12.2016 09:00 -2,9 C -2,8 C -3,9 C 96 % 1 lf 1025,4 hPa 0,0 l/m 0 min 0 min 35 W/m 0,0 km/h (0 Bft) 91,30 %
03.12.2016 09:02 -2,9 C -2,8 C -3,9 C 96 % 1 lf 1025,5 hPa 0,0 l/m 0 min 0 min 39 W/m 0,0 km/h (0 Bft) 89,36 %
03.12.2016 09:04 -2,9 C -2,8 C -3,9 C 96 % 1 lf 1025,4 hPa 0,0 l/m 2 min 0 min 44 W/m 0,0 km/h (0 Bft) 93,62 %
03.12.2016 09:06 -2,9 C -2,8 C -3,9 C 96 % 1 lf 1025,4 hPa 0,0 l/m 2 min 0 min 48 W/m 0,0 km/h (0 Bft) 91,49 %
03.12.2016 09:08 -2,9 C -2,8 C -3,9 C 96 % 1 lf 1025,4 hPa 0,0 l/m 2 min 0 min 54 W/m 0,0 km/h (0 Bft) 93,62 %
03.12.2016 09:10 -2,9 C -2,8 C -3,9 C 96 % 1 lf 1025,4 hPa 0,0 l/m 2 min 0 min 57 W/m 0,0 km/h (0 Bft) 91,49 %
03.12.2016 09:12 -2,9 C -2,8 C -3,9 C 96 % 1 lf 1025,4 hPa 0,0 l/m 2 min 0 min 58 W/m 4,2 km/h (1 Bft) 86,96 %
03.12.2016 09:14 -2,9 C -2,2 C -3,9 C 96 % 1 lf 1025,4 hPa 0,0 l/m 2 min 0 min 61 W/m 2,1 km/h (1 Bft) 91,49 %
03.12.2016 09:16 -2,9 C -2,2 C -3,9 C 96 % 1 lf 1025,4 hPa 0,0 l/m 2 min 0 min 62 W/m 2,1 km/h (1 Bft) 91,49 %
03.12.2016 09:18 -2,9 C -2,2 C -3,3 C 96 % 1 lf 1025,4 hPa 0,0 l/m 2 min 0 min 65 W/m 4,2 km/h (1 Bft) 93,62 %
03.12.2016 09:20 -2,9 C -2,2 C -3,3 C 96 % 1 lf 1025,4 hPa 0,0 l/m 2 min 0 min 66 W/m 4,2 km/h (1 Bft) 93,62 %
03.12.2016 09:22 -2,8 C -2,2 C -3,3 C 96 % 2 lf 1025,5 hPa 0,0 l/m 2 min 0 min 67 W/m 4,2 km/h (1 Bft) 91,49 %
03.12.2016 09:24 -2,8 C -1,7 C -3,3 C 96 % 2 lf 1025,5 hPa 0,0 l/m 2 min 0 min 71 W/m 4,2 km/h (1 Bft) 95,65 %
03.12.2016 09:26 -2,8 C -1,7 C -3,3 C 96 % 2 lf 1025,4 hPa 0,0 l/m 2 min 0 min 73 W/m 4,2 km/h (1 Bft) 93,62 %
03.12.2016 09:28 -2,7 C -1,7 C -2,8 C 96 % 2 lf 1025,5 hPa 0,0 l/m 2 min 0 min 72 W/m 4,2 km/h (1 Bft) 95,74 %
03.12.2016 09:30 -2,7 C -1,7 C -2,8 C 96 % 2 lf 1025,4 hPa 0,0 l/m 2 min 0 min 79 W/m 4,2 km/h (1 Bft) 95,74 %
03.12.2016 09:32 -2,6 C -1,7 C -2,8 C 96 % 2 lf 1025,5 hPa 0,0 l/m 2 min 0 min 83 W/m 4,2 km/h (1 Bft) 93,62 %
03.12.2016 09:34 -2,6 C -1,7 C -2,8 C 96 % 2 lf 1025,4 hPa 0,0 l/m 2 min 0 min 84 W/m 4,2 km/h (1 Bft) 97,87 %
03.12.2016 09:36 -2,6 C -1,7 C -2,8 C 96 % 2 lf 1025,5 hPa 0,0 l/m 2 min 0 min 84 W/m 4,2 km/h (1 Bft) 97,83 %
03.12.2016 09:38 -2,5 C -1,7 C -2,8 C 96 % 2 lf 1025,6 hPa 0,0 l/m 2 min 0 min 87 W/m 4,2 km/h (1 Bft) 97,87 %
03.12.2016 09:40 -2,5 C -1,7 C -2,8 C 96 % 2 lf 1025,6 hPa 0,0 l/m 2 min 0 min 89 W/m 6,3 km/h (2 Bft) 95,74 %
03.12.2016 09:42 -2,4 C -1,7 C -3,3 C 96 % 2 lf 1025,7 hPa 0,0 l/m 2 min 0 min 93 W/m 6,3 km/h (2 Bft) 95,74 %
03.12.2016 09:44 -2,4 C -1,7 C -3,3 C 96 % 2 lf 1025,7 hPa 0,0 l/m 2 min 0 min 100 W/m 4,2 km/h (1 Bft) 97,87 %
03.12.2016 09:46 -2,4 C -1,7 C -3,3 C 96 % 2 lf 1025,7 hPa 0,0 l/m 2 min 0 min 98 W/m 4,2 km/h (1 Bft) 97,83 %
03.12.2016 09:48 -2,3 C -1,7 C -3,3 C 96 % 2 lf 1025,7 hPa 0,0 l/m 2 min 0 min 105 W/m 4,2 km/h (1 Bft) 97,87 %
03.12.2016 09:50 -2,3 C -1,7 C -3,3 C 96 % 2 lf 1025,7 hPa 0,0 l/m 2 min 0 min 115 W/m 4,2 km/h (1 Bft) 97,87 %
03.12.2016 09:52 -2,3 C -1,7 C -2,8 C 96 % 2 lf 1025,8 hPa 0,0 l/m 2 min 0 min 111 W/m 4,2 km/h (1 Bft) 97,87 %
03.12.2016 09:54 -2,3 C -1,1 C -2,8 C 96 % 2 lf 1025,8 hPa 0,0 l/m 2 min 0 min 120 W/m 4,2 km/h (1 Bft) 97,87 %
03.12.2016 09:56 -2,3 C -1,7 C -2,8 C 96 % 2 lf 1025,8 hPa 0,0 l/m 2 min 0 min 127 W/m 4,2 km/h (1 Bft) 95,74 %
03.12.2016 09:58 -2,2 C -1,1 C -2,8 C 96 % 2 lf 1025,8 hPa 0,0 l/m 2 min 0 min 121 W/m 4,2 km/h (1 Bft) 100,00 %
03.12.2016 10:00 -2,2 C -1,1 C -2,8 C 96 % 2 lf 1025,8 hPa 0,0 l/m 2 min 0 min 112 W/m 4,2 km/h (1 Bft) 100,00 %
03.12.2016 10:02 -2,2 C -1,1 C -2,8 C 96 % 2 lf 1025,8 hPa 0,0 l/m 2 min 0 min 111 W/m 4,2 km/h (1 Bft) 100,00 %
03.12.2016 10:04 -2,1 C -1,1 C -2,8 C 96 % 2 lf 1025,9 hPa 0,0 l/m 2 min 0 min 123 W/m 6,3 km/h (2 Bft) 95,74 %
03.12.2016 10:06 -2,1 C -1,1 C -2,8 C 96 % 2 lf 1025,8 hPa 0,0 l/m 2 min 0 min 123 W/m 6,3 km/h (2 Bft) 100,00 %
03.12.2016 10:08 -2,1 C -1,1 C -2,8 C 96 % 2 lf 1025,9 hPa 0,0 l/m 2 min 0 min 120 W/m 6,3 km/h (2 Bft) 97,87 %
03.12.2016 10:10 -2,0 C -1,1 C -2,8 C 96 % 2 lf 1025,9 hPa 0,0 l/m 2 min 0 min 135 W/m 6,3 km/h (2 Bft) 97,83 %
03.12.2016 10:12 -1,9 C -1,1 C -2,8 C 96 % 2 lf 1025,9 hPa 0,0 l/m 2 min 0 min 130 W/m 6,3 km/h (2 Bft) 97,87 %
03.12.2016 10:14 -1,9 C -1,1 C -2,8 C 96 % 3 lf 1025,9 hPa 0,0 l/m 2 min 0 min 145 W/m 8,4 km/h (2 Bft) 95,74 %
03.12.2016 10:16 -1,9 C -1,1 C -2,8 C 97 % 3 lf 1026,0 hPa 0,0 l/m 2 min 0 min 142 W/m 6,3 km/h (2 Bft) 95,74 %
03.12.2016 10:18 -1,8 C -1,1 C -2,8 C 97 % 3 lf 1025,9 hPa 0,0 l/m 2 min 0 min 175 W/m 4,2 km/h (1 Bft) 97,87 %
03.12.2016 10:20 -1,8 C -1,1 C -2,8 C 97 % 3 lf 1025,9 hPa 0,0 l/m 2 min 0 min 194 W/m 4,2 km/h (1 Bft) 91,49 %
03.12.2016 10:22 -1,8 C -1,1 C -2,8 C 97 % 3 lf 1026,0 hPa 0,0 l/m 2 min 0 min 200 W/m 6,3 km/h (2 Bft) 95,65 %
03.12.2016 10:24 -1,7 C -1,1 C -2,2 C 97 % 3 lf 1026,0 hPa 0,0 l/m 2 min 0 min 206 W/m 6,3 km/h (2 Bft) 97,87 %
03.12.2016 10:26 -1,7 C -1,1 C -2,2 C 97 % 3 lf 1026,1 hPa 0,0 l/m 2 min 0 min 209 W/m 6,3 km/h (2 Bft) 95,74 %
03.12.2016 10:28 -1,7 C -0,6 C -2,2 C 97 % 3 lf 1026,1 hPa 0,0 l/m 2 min 0 min 213 W/m 6,3 km/h (2 Bft) 97,87 %
03.12.2016 10:30 -1,6 C -0,6 C -2,2 C 97 % 3 lf 1026,1 hPa 0,0 l/m 2 min 0 min 217 W/m 6,3 km/h (2 Bft) 97,87 %
03.12.2016 10:32 -1,6 C -0,6 C -2,2 C 97 % 3 lf 1026,1 hPa 0,0 l/m 2 min 0 min 221 W/m 6,3 km/h (2 Bft) 97,87 %
03.12.2016 10:34 -1,5 C -0,6 C -2,2 C 97 % 3 lf 1026,0 hPa 0,0 l/m 2 min 0 min 222 W/m 8,4 km/h (2 Bft) 95,65 %
03.12.2016 10:36 -1,4 C 0,0 C -2,2 C 97 % 4 lf 1026,1 hPa 0,0 l/m 2 min 0 min 224 W/m 6,3 km/h (2 Bft) 95,74 %
03.12.2016 10:38 -1,4 C 0,0 C -2,2 C 97 % 4 lf 1026,1 hPa 0,0 l/m 2 min 0 min 225 W/m 8,4 km/h (2 Bft) 93,62 %
03.12.2016 10:40 -1,3 C 0,0 C -2,2 C 97 % 4 lf 1026,2 hPa 0,0 l/m 2 min 0 min 221 W/m 6,3 km/h (2 Bft) 95,74 %
03.12.2016 10:42 -1,3 C 0,0 C -2,2 C 97 % 4 lf 1026,2 hPa 0,0 l/m 2 min 0 min 218 W/m 6,3 km/h (2 Bft) 97,87 %
03.12.2016 10:44 -1,2 C 0,0 C -2,2 C 97 % 5 lf 1026,2 hPa 0,0 l/m 2 min 0 min 222 W/m 6,3 km/h (2 Bft) 97,87 %
03.12.2016 10:46 -1,2 C 0,0 C -2,2 C 97 % 6 lf 1026,2 hPa 0,0 l/m 2 min 0 min 227 W/m 6,3 km/h (2 Bft) 95,65 %
03.12.2016 10:48 -1,2 C 0,0 C -2,2 C 97 % 7 lf 1026,2 hPa 0,0 l/m 2 min 0 min 222 W/m 4,2 km/h (1 Bft) 97,87 %
03.12.2016 10:50 -1,1 C 0,0 C -2,2 C 97 % 9 lf 1026,2 hPa 0,0 l/m 2 min 0 min 203 W/m 8,4 km/h (2 Bft) 93,62 %
03.12.2016 10:52 -1,1 C 0,0 C -2,2 C 97 % 10 lf 1026,2 hPa 0,0 l/m 2 min 0 min 200 W/m 4,2 km/h (1 Bft) 95,74 %
03.12.2016 10:54 -1,0 C 0,0 C -2,2 C 97 % 12 lf 1026,2 hPa 0,0 l/m 2 min 0 min 200 W/m 8,4 km/h (2 Bft) 95,74 %
03.12.2016 10:56 -0,9 C 0,6 C -2,2 C 97 % 13 lf 1026,2 hPa 0,0 l/m 2 min 0 min 196 W/m 6,3 km/h (2 Bft) 95,65 %
03.12.2016 10:58 -0,9 C 0,6 C -2,2 C 97 % 14 lf 1026,1 hPa 0,0 l/m 2 min 0 min 194 W/m 10,5 km/h (2 Bft) 95,74 %
03.12.2016 11:00 -0,8 C 0,6 C -2,2 C 97 % 15 lf 1026,2 hPa 0,0 l/m 2 min 0 min 192 W/m 8,4 km/h (2 Bft) 95,74 %
03.12.2016 11:02 -0,8 C 0,6 C -2,2 C 97 % 15 lf 1026,2 hPa 0,0 l/m 2 min 0 min 196 W/m 8,4 km/h (2 Bft) 95,74 %
03.12.2016 11:04 -0,7 C 1,1 C -2,2 C 97 % 15 lf 1026,2 hPa 0,0 l/m 2 min 0 min 201 W/m 8,4 km/h (2 Bft) 93,62 %
03.12.2016 11:06 -0,7 C 1,7 C -1,7 C 97 % 15 lf 1026,2 hPa 0,0 l/m 2 min 0 min 213 W/m 6,3 km/h (2 Bft) 95,74 %
03.12.2016 11:08 -0,6 C 1,7 C -1,7 C 97 % 15 lf 1026,2 hPa 0,0 l/m 2 min 0 min 202 W/m 6,3 km/h (2 Bft) 95,65 %
03.12.2016 11:10 -0,6 C 3,9 C -1,7 C 97 % 15 lf 1026,2 hPa 0,0 l/m 2 min 0 min 205 W/m 6,3 km/h (2 Bft) 97,87 %
03.12.2016 11:12 -0,5 C 4,4 C -1,7 C 97 % 15 lf 1026,1 hPa 0,2 l/m 2 min 0 min 208 W/m 6,3 km/h (2 Bft) 97,87 %
03.12.2016 11:14 -0,4 C 5,0 C -1,7 C 97 % 15 lf 1026,1 hPa 0,0 l/m 2 min 0 min 202 W/m 6,3 km/h (2 Bft) 97,87 %
03.12.2016 11:16 -0,4 C 5,0 C -1,7 C 97 % 15 lf 1026,2 hPa 0,0 l/m 2 min 0 min 198 W/m 8,4 km/h (2 Bft) 93,62 %
03.12.2016 11:18 -0,3 C 3,9 C -1,7 C 97 % 15 lf 1026,2 hPa 0,0 l/m 2 min 0 min 186 W/m 8,4 km/h (2 Bft) 95,74 %
03.12.2016 11:20 -0,2 C 3,9 C -1,7 C 97 % 15 lf 1026,1 hPa 0,0 l/m 2 min 0 min 207 W/m 8,4 km/h (2 Bft) 97,83 %
03.12.2016 11:22 -0,2 C 3,9 C -1,7 C 97 % 15 lf 1026,1 hPa 0,0 l/m 2 min 0 min 209 W/m 8,4 km/h (2 Bft) 97,87 %
03.12.2016 11:24 -0,2 C 3,9 C -1,7 C 97 % 15 lf 1026,2 hPa 0,0 l/m 2 min 2 min 211 W/m 8,4 km/h (2 Bft) 97,87 %
03.12.2016 11:26 -0,1 C 3,9 C -1,7 C 97 % 15 lf 1026,1 hPa 0,0 l/m 2 min 0 min 210 W/m 8,4 km/h (2 Bft) 95,74 %
03.12.2016 11:28 -0,1 C 4,4 C -1,7 C 97 % 15 lf 1026,1 hPa 0,0 l/m 2 min 0 min 212 W/m 8,4 km/h (2 Bft) 97,87 %
03.12.2016 11:30 -0,1 C 4,4 C -1,7 C 97 % 15 lf 1026,1 hPa 0,0 l/m 2 min 2 min 217 W/m 8,4 km/h (2 Bft) 97,87 %
03.12.2016 11:32 -0,1 C 5,0 C -1,7 C 97 % 15 lf 1026,1 hPa 0,0 l/m 2 min 0 min 229 W/m 8,4 km/h (2 Bft) 94,44 %
03.12.2016 11:34 0,0 C 4,4 C -1,7 C 97 % 15 lf 1026,1 hPa 0,0 l/m 2 min 0 min 238 W/m 6,3 km/h (2 Bft) 93,62 %
03.12.2016 11:36 0,1 C 3,3 C -1,7 C 97 % 15 lf 1026,0 hPa 0,0 l/m 2 min 0 min 224 W/m 6,3 km/h (2 Bft) 93,62 %
03.12.2016 11:38 0,1 C 3,3 C -1,7 C 97 % 15 lf 1026,1 hPa 0,0 l/m 2 min 0 min 240 W/m 8,4 km/h (2 Bft) 93,62 %
03.12.2016 11:40 0,0 C 2,8 C -1,7 C 97 % 15 lf 1026,1 hPa 0,0 l/m 2 min 0 min 235 W/m 8,4 km/h (2 Bft) 95,65 %
03.12.2016 11:42 0,0 C 2,2 C -1,7 C 97 % 15 lf 1026,0 hPa 0,0 l/m 2 min 0 min 226 W/m 8,4 km/h (2 Bft) 95,74 %
03.12.2016 11:44 0,0 C 1,7 C -2,2 C 97 % 15 lf 1026,0 hPa 0,0 l/m 2 min 0 min 230 W/m 6,3 km/h (2 Bft) 93,62 %
03.12.2016 11:46 -0,1 C 0,6 C -2,2 C 97 % 15 lf 1026,0 hPa 0,0 l/m 0 min 0 min 112 W/m 10,5 km/h (2 Bft) 91,49 %
03.12.2016 11:48 -0,2 C 0,6 C -2,2 C 97 % 15 lf 1026,0 hPa 0,0 l/m 2 min 0 min 169 W/m 8,4 km/h (2 Bft) 97,87 %
03.12.2016 11:50 -0,2 C 1,1 C -2,2 C 97 % 15 lf 1026,0 hPa 0,0 l/m 2 min 0 min 203 W/m 6,3 km/h (2 Bft) 91,49 %
03.12.2016 11:52 -0,3 C 0,6 C -1,7 C 97 % 15 lf 1026,0 hPa 0,0 l/m 2 min 0 min 202 W/m 8,4 km/h (2 Bft) 96,23 %
03.12.2016 11:54 -0,3 C 0,6 C -2,2 C 97 % 15 lf 1026,1 hPa 0,0 l/m 2 min 0 min 187 W/m 8,4 km/h (2 Bft) 91,49 %
03.12.2016 11:56 -0,4 C 0,6 C -2,2 C 97 % 15 lf 1026,0 hPa 0,0 l/m 2 min 0 min 179 W/m 8,4 km/h (2 Bft) 97,87 %
03.12.2016 11:58 -0,5 C 1,1 C -2,2 C 97 % 15 lf 1026,0 hPa 0,0 l/m 2 min 0 min 231 W/m 8,4 km/h (2 Bft) 97,87 %
03.12.2016 12:00 -0,5 C 1,1 C -2,2 C 97 % 15 lf 1026,0 hPa 0,0 l/m 0 min 0 min 154 W/m 10,5 km/h (2 Bft) 93,62 %
03.12.2016 12:02 -0,6 C 1,1 C -2,2 C 97 % 15 lf 1025,9 hPa 0,0 l/m 2 min 0 min 175 W/m 6,3 km/h (2 Bft) 95,74 %
03.12.2016 12:06 -0,6 C 0,6 C -2,2 C 97 % 15 lf 1025,9 hPa 0,0 l/m 2 min 0 min 161 W/m 10,5 km/h (2 Bft) 95,79 %
03.12.2016 12:08 -0,6 C 0,6 C -2,2 C 97 % 15 lf 1025,8 hPa 0,0 l/m 0 min 0 min 155 W/m 6,3 km/h (2 Bft) 95,74 %
03.12.2016 12:10 -0,7 C 0,6 C -2,2 C 97 % 15 lf 1025,9 hPa 0,0 l/m 2 min 0 min 173 W/m 8,4 km/h (2 Bft) 91,49 %
03.12.2016 12:12 -0,7 C 1,1 C -1,7 C 97 % 15 lf 1025,9 hPa 0,0 l/m 2 min 0 min 196 W/m 8,4 km/h (2 Bft) 93,62 %
03.12.2016 12:14 -0,7 C 1,1 C -2,2 C 97 % 15 lf 1025,8 hPa 0,0 l/m 2 min 0 min 189 W/m 6,3 km/h (2 Bft) 93,48 %
03.12.2016 12:16 -0,7 C 1,1 C -1,7 C 97 % 15 lf 1025,9 hPa 0,0 l/m 0 min 0 min 141 W/m 8,4 km/h (2 Bft) 97,87 %
03.12.2016 12:18 -0,7 C 1,1 C -1,7 C 97 % 15 lf 1025,8 hPa 0,0 l/m 2 min 0 min 163 W/m 6,3 km/h (2 Bft) 89,36 %
03.12.2016 12:20 -0,7 C 1,1 C -1,7 C 97 % 15 lf 1026,0 hPa 0,0 l/m 2 min 0 min 180 W/m 4,2 km/h (1 Bft) 95,74 %
03.12.2016 12:22 -0,7 C 1,7 C -1,7 C 97 % 15 lf 1026,0 hPa 0,0 l/m 2 min 0 min 218 W/m 4,2 km/h (1 Bft) 95,74 %
03.12.2016 12:24 -0,7 C 1,1 C -1,7 C 97 % 15 lf 1026,0 hPa 0,0 l/m 0 min 0 min 142 W/m 8,4 km/h (2 Bft) 95,74 %
03.12.2016 12:26 -0,7 C 1,1 C -1,7 C 97 % 15 lf 1026,0 hPa 0,0 l/m 2 min 0 min 218 W/m 8,4 km/h (2 Bft) 97,83 %
03.12.2016 12:28 -0,7 C 1,1 C -1,7 C 97 % 15 lf 1025,9 hPa 0,0 l/m 2 min 0 min 170 W/m 6,3 km/h (2 Bft) 95,74 %
03.12.2016 12:30 -0,7 C 1,7 C -1,7 C 97 % 15 lf 1025,9 hPa 0,0 l/m 2 min 0 min 180 W/m 4,2 km/h (1 Bft) 97,87 %
03.12.2016 12:32 -0,7 C 1,7 C -1,7 C 97 % 15 lf 1025,9 hPa 0,0 l/m 2 min 0 min 205 W/m 6,3 km/h (2 Bft) 97,87 %
03.12.2016 12:34 -0,7 C 1,7 C -1,7 C 97 % 15 lf 1025,9 hPa 0,0 l/m 2 min 0 min 263 W/m 6,3 km/h (2 Bft) 95,74 %
03.12.2016 12:36 -0,6 C 1,1 C -2,2 C 97 % 15 lf 1026,0 hPa 0,0 l/m 0 min 0 min 112 W/m 4,2 km/h (1 Bft) 94,74 %
03.12.2016 12:38 -0,7 C 2,2 C -1,7 C 97 % 15 lf 1026,0 hPa 0,0 l/m 2 min 0 min 173 W/m 8,4 km/h (2 Bft) 95,65 %
03.12.2016 12:40 -0,6 C 2,2 C -1,7 C 97 % 15 lf 1026,0 hPa 0,0 l/m 2 min 0 min 214 W/m 8,4 km/h (2 Bft) 95,74 %
03.12.2016 12:42 -0,6 C 2,8 C -1,7 C 97 % 15 lf 1026,0 hPa 0,0 l/m 2 min 0 min 235 W/m 6,3 km/h (2 Bft) 97,87 %
03.12.2016 12:44 -0,6 C 1,7 C -1,7 C 97 % 15 lf 1026,0 hPa 0,0 l/m 2 min 0 min 206 W/m 8,4 km/h (2 Bft) 95,74 %
03.12.2016 12:46 -0,6 C 2,2 C -1,7 C 97 % 15 lf 1026,0 hPa 0,0 l/m 2 min 0 min 175 W/m 6,3 km/h (2 Bft) 95,74 %
03.12.2016 12:48 -0,5 C 2,2 C -1,7 C 97 % 15 lf 1025,9 hPa 0,0 l/m 2 min 0 min 198 W/m 4,2 km/h (1 Bft) 89,36 %
03.12.2016 12:50 -0,5 C 2,2 C -1,7 C 97 % 15 lf 1026,0 hPa 0,0 l/m 2 min 0 min 194 W/m 6,3 km/h (2 Bft) 95,65 %
03.12.2016 12:52 -0,5 C 2,2 C -1,1 C 97 % 15 lf 1025,9 hPa 0,0 l/m 2 min 0 min 186 W/m 6,3 km/h (2 Bft) 95,74 %
03.12.2016 12:54 -0,4 C 1,7 C -1,1 C 97 % 15 lf 1025,9 hPa 0,0 l/m 2 min 0 min 204 W/m 6,3 km/h (2 Bft) 93,62 %
03.12.2016 12:56 -0,4 C 1,7 C -1,1 C 97 % 15 lf 1025,9 hPa 0,0 l/m 2 min 0 min 227 W/m 6,3 km/h (2 Bft) 95,74 %
03.12.2016 12:58 -0,4 C 1,7 C -1,1 C 97 % 15 lf 1025,9 hPa 0,0 l/m 2 min 0 min 252 W/m 6,3 km/h (2 Bft) 93,62 %
03.12.2016 13:00 -0,4 C 2,2 C -1,1 C 97 % 15 lf 1025,8 hPa 0,0 l/m 2 min 0 min 236 W/m 4,2 km/h (1 Bft) 91,49 %
03.12.2016 13:02 -0,3 C 2,2 C -1,1 C 97 % 15 lf 1025,9 hPa 0,0 l/m 2 min 0 min 208 W/m 0,0 km/h (0 Bft) 95,65 %
03.12.2016 13:04 -0,3 C 1,7 C -1,1 C 97 % 15 lf 1025,9 hPa 0,0 l/m 2 min 0 min 197 W/m 6,3 km/h (2 Bft) 97,87 %
03.12.2016 13:06 -0,3 C 1,1 C -1,1 C 97 % 15 lf 1025,9 hPa 0,0 l/m 2 min 0 min 175 W/m 6,3 km/h (2 Bft) 96,61 %
03.12.2016 13:08 -0,3 C 1,1 C -1,1 C 97 % 15 lf 1025,8 hPa 0,0 l/m 2 min 0 min 183 W/m 2,1 km/h (1 Bft) 95,74 %
03.12.2016 13:10 -0,3 C 1,7 C -1,1 C 97 % 15 lf 1025,9 hPa 0,0 l/m 2 min 0 min 205 W/m 4,2 km/h (1 Bft) 93,62 %
03.12.2016 13:12 -0,3 C 1,7 C -1,1 C 97 % 15 lf 1025,9 hPa 0,0 l/m 2 min 0 min 218 W/m 6,3 km/h (2 Bft) 93,48 %
03.12.2016 13:14 -0,3 C 2,2 C -1,1 C 97 % 15 lf 1025,9 hPa 0,0 l/m 2 min 0 min 202 W/m 4,2 km/h (1 Bft) 93,62 %
03.12.2016 13:16 -0,3 C 2,8 C -1,1 C 97 % 15 lf 1025,9 hPa 0,0 l/m 2 min 0 min 207 W/m 4,2 km/h (1 Bft) 95,74 %
03.12.2016 13:18 -0,2 C 2,8 C -1,1 C 97 % 15 lf 1025,9 hPa 0,0 l/m 2 min 0 min 210 W/m 4,2 km/h (1 Bft) 97,87 %
03.12.2016 13:20 -0,2 C 3,9 C -1,1 C 97 % 15 lf 1025,9 hPa 0,0 l/m 2 min 0 min 212 W/m 4,2 km/h (1 Bft) 97,87 %
03.12.2016 13:22 -0,2 C 3,3 C -0,6 C 97 % 15 lf 1025,9 hPa 0,0 l/m 2 min 0 min 208 W/m 4,2 km/h (1 Bft) 97,83 %
03.12.2016 13:24 -0,1 C 3,3 C -0,6 C 97 % 15 lf 1025,9 hPa 0,0 l/m 2 min 0 min 216 W/m 6,3 km/h (2 Bft) 95,74 %
03.12.2016 13:26 -0,1 C 3,3 C -0,6 C 97 % 15 lf 1025,8 hPa 0,0 l/m 2 min 0 min 227 W/m 4,2 km/h (1 Bft) 100,00 %
03.12.2016 13:28 0,0 C 3,9 C -0,6 C 97 % 15 lf 1025,8 hPa 0,0 l/m 2 min 0 min 223 W/m 2,1 km/h (1 Bft) 100,00 %
03.12.2016 13:30 0,1 C 4,4 C -0,6 C 97 % 15 lf 1025,8 hPa 0,0 l/m 2 min 0 min 262 W/m 4,2 km/h (1 Bft) 97,87 %
03.12.2016 13:32 0,1 C 4,4 C -0,6 C 97 % 15 lf 1025,8 hPa 0,0 l/m 2 min 0 min 265 W/m 4,2 km/h (1 Bft) 97,92 %
03.12.2016 13:34 0,2 C 3,9 C -0,6 C 97 % 15 lf 1025,7 hPa 0,0 l/m 2 min 0 min 211 W/m 2,1 km/h (1 Bft) 97,83 %
03.12.2016 13:36 0,2 C 3,3 C -0,6 C 97 % 15 lf 1025,7 hPa 0,0 l/m 2 min 0 min 225 W/m 0,0 km/h (0 Bft) 100,00 %
03.12.2016 13:38 0,2 C 3,9 C -0,6 C 97 % 15 lf 1025,6 hPa 0,0 l/m 2 min 0 min 296 W/m 0,0 km/h (0 Bft) 93,62 %
03.12.2016 13:40 0,3 C 4,4 C -0,6 C 97 % 15 lf 1025,6 hPa 0,0 l/m 2 min 0 min 257 W/m 0,0 km/h (0 Bft) 100,00 %
03.12.2016 13:42 0,3 C 3,3 C -0,6 C 97 % 15 lf 1025,7 hPa 0,0 l/m 2 min 0 min 229 W/m 0,0 km/h (0 Bft) 97,87 %
03.12.2016 13:44 0,3 C 2,8 C -0,6 C 97 % 15 lf 1025,6 hPa 0,0 l/m 2 min 0 min 241 W/m 0,0 km/h (0 Bft) 100,00 %
03.12.2016 13:46 0,3 C 2,2 C -0,6 C 98 % 15 lf 1025,6 hPa 0,0 l/m 2 min 0 min 253 W/m 6,3 km/h (2 Bft) 98,11 %
03.12.2016 13:48 0,3 C 2,2 C -0,6 C 98 % 15 lf 1025,6 hPa 0,0 l/m 2 min 0 min 240 W/m 6,3 km/h (2 Bft) 97,87 %
03.12.2016 13:50 0,4 C 2,2 C -0,6 C 98 % 15 lf 1025,6 hPa 0,0 l/m 2 min 0 min 233 W/m 6,3 km/h (2 Bft) 93,62 %
03.12.2016 13:52 0,4 C 1,7 C -0,6 C 98 % 15 lf 1025,6 hPa 0,0 l/m 2 min 0 min 218 W/m 4,2 km/h (1 Bft) 97,87 %
03.12.2016 13:54 0,3 C 2,2 C -0,6 C 98 % 15 lf 1025,6 hPa 0,0 l/m 2 min 0 min 240 W/m 2,1 km/h (1 Bft) 95,74 %
03.12.2016 13:56 0,3 C 2,2 C -0,6 C 98 % 15 lf 1025,6 hPa 0,0 l/m 2 min 0 min 241 W/m 6,3 km/h (2 Bft) 95,74 %
03.12.2016 13:58 0,3 C 2,8 C -0,6 C 98 % 15 lf 1025,6 hPa 0,0 l/m 2 min 0 min 248 W/m 4,2 km/h (1 Bft) 95,65 %
03.12.2016 14:00 0,4 C 2,8 C 0,0 C 98 % 15 lf 1025,5 hPa 0,0 l/m 2 min 0 min 231 W/m 4,2 km/h (1 Bft) 95,74 %
03.12.2016 14:02 0,4 C 2,8 C 0,0 C 98 % 15 lf 1025,6 hPa 0,0 l/m 2 min 0 min 209 W/m 4,2 km/h (1 Bft) 97,87 %
03.12.2016 14:04 0,4 C 2,8 C -0,6 C 98 % 15 lf 1025,5 hPa 0,0 l/m 2 min 0 min 236 W/m 6,3 km/h (2 Bft) 95,74 %
03.12.2016 14:06 0,4 C 2,2 C -0,6 C 98 % 15 lf 1025,5 hPa 0,0 l/m 2 min 0 min 222 W/m 6,3 km/h (2 Bft) 93,62 %
03.12.2016 14:08 0,4 C 2,2 C -0,6 C 98 % 15 lf 1025,5 hPa 0,0 l/m 2 min 0 min 216 W/m 6,3 km/h (2 Bft) 95,74 %
03.12.2016 14:10 0,4 C 2,8 C -0,6 C 98 % 15 lf 1025,5 hPa 0,0 l/m 2 min 0 min 242 W/m 2,1 km/h (1 Bft) 95,65 %
03.12.2016 14:12 0,4 C 3,3 C -0,6 C 98 % 15 lf 1025,5 hPa 0,0 l/m 2 min 0 min 262 W/m 4,2 km/h (1 Bft) 93,62 %
03.12.2016 14:14 0,4 C 3,9 C 0,0 C 98 % 15 lf 1025,5 hPa 0,0 l/m 2 min 0 min 247 W/m 4,2 km/h (1 Bft) 95,74 %
03.12.2016 14:16 0,4 C 3,3 C -0,6 C 98 % 15 lf 1025,5 hPa 0,0 l/m 2 min 0 min 254 W/m 6,3 km/h (2 Bft) 95,74 %
03.12.2016 14:18 0,4 C 3,3 C -0,6 C 98 % 15 lf 1025,5 hPa 0,0 l/m 2 min 0 min 245 W/m 6,3 km/h (2 Bft) 93,62 %
03.12.2016 14:20 0,4 C 2,8 C -0,6 C 98 % 15 lf 1025,5 hPa 0,0 l/m 2 min 0 min 224 W/m 6,3 km/h (2 Bft) 95,74 %
03.12.2016 14:22 0,4 C 2,2 C -0,6 C 98 % 15 lf 1025,5 hPa 0,0 l/m 2 min 0 min 215 W/m 6,3 km/h (2 Bft) 95,65 %
03.12.2016 14:24 0,3 C 1,1 C -1,1 C 98 % 15 lf 1025,5 hPa 0,0 l/m 2 min 0 min 182 W/m 6,3 km/h (2 Bft) 91,49 %
03.12.2016 14:26 0,3 C 0,6 C -1,1 C 97 % 15 lf 1025,5 hPa 0,0 l/m 2 min 0 min 150 W/m 4,2 km/h (1 Bft) 93,62 %
03.12.2016 14:28 0,3 C 0,6 C -1,7 C 97 % 15 lf 1025,5 hPa 0,0 l/m 2 min 0 min 163 W/m 4,2 km/h (1 Bft) 95,74 %
03.12.2016 14:30 0,2 C 0,6 C -1,7 C 97 % 15 lf 1025,5 hPa 0,0 l/m 2 min 0 min 160 W/m 4,2 km/h (1 Bft) 93,62 %
03.12.2016 14:32 0,2 C 0,6 C -1,7 C 97 % 15 lf 1025,5 hPa 0,0 l/m 2 min 0 min 138 W/m 4,2 km/h (1 Bft) 93,62 %
03.12.2016 14:34 0,2 C 0,6 C -1,7 C 97 % 15 lf 1025,5 hPa 0,0 l/m 2 min 0 min 122 W/m 6,3 km/h (2 Bft) 91,30 %
03.12.2016 14:36 0,2 C 0,0 C -1,7 C 97 % 15 lf 1025,5 hPa 0,0 l/m 2 min 0 min 115 W/m 6,3 km/h (2 Bft) 95,74 %
03.12.2016 14:38 0,1 C 0,0 C -1,7 C 97 % 15 lf 1025,5 hPa 0,0 l/m 2 min 0 min 108 W/m 6,3 km/h (2 Bft) 95,74 %
03.12.2016 14:40 0,1 C 0,0 C -1,7 C 97 % 15 lf 1025,5 hPa 0,0 l/m 0 min 0 min 101 W/m 4,2 km/h (1 Bft) 95,74 %
03.12.2016 14:42 0,0 C 0,0 C -1,7 C 97 % 15 lf 1025,5 hPa 0,0 l/m 0 min 0 min 96 W/m 4,2 km/h (1 Bft) 95,74 %
03.12.2016 14:44 -0,1 C 0,0 C -1,7 C 97 % 15 lf 1025,5 hPa 0,0 l/m 0 min 0 min 74 W/m 6,3 km/h (2 Bft) 100,00 %
03.12.2016 14:46 -0,1 C 0,0 C -1,7 C 97 % 15 lf 1025,4 hPa 0,0 l/m 0 min 0 min 67 W/m 6,3 km/h (2 Bft) 97,83 %
03.12.2016 14:48 -0,2 C 0,0 C -1,7 C 97 % 15 lf 1025,4 hPa 0,0 l/m 0 min 0 min 69 W/m 6,3 km/h (2 Bft) 95,74 %
03.12.2016 14:50 -0,2 C 0,0 C -1,7 C 97 % 15 lf 1025,5 hPa 0,0 l/m 0 min 0 min 72 W/m 6,3 km/h (2 Bft) 100,00 %
03.12.2016 14:52 -0,2 C 0,0 C -1,7 C 97 % 15 lf 1025,5 hPa 0,0 l/m 0 min 0 min 86 W/m 6,3 km/h (2 Bft) 100,00 %
03.12.2016 14:54 -0,3 C 0,0 C -1,7 C 97 % 15 lf 1025,5 hPa 0,0 l/m 0 min 0 min 88 W/m 6,3 km/h (2 Bft) 97,87 %
03.12.2016 14:56 -0,3 C 0,0 C -1,7 C 97 % 15 lf 1025,4 hPa 0,0 l/m 0 min 0 min 83 W/m 4,2 km/h (1 Bft) 100,00 %
03.12.2016 14:58 -0,3 C 0,0 C -1,7 C 97 % 15 lf 1025,5 hPa 0,0 l/m 0 min 0 min 83 W/m 2,1 km/h (1 Bft) 95,74 %
03.12.2016 15:00 -0,3 C 0,6 C -1,7 C 97 % 15 lf 1025,5 hPa 0,0 l/m 0 min 0 min 81 W/m 2,1 km/h (1 Bft) 100,00 %
03.12.2016 15:02 -0,3 C 0,6 C -1,7 C 97 % 15 lf 1025,4 hPa 0,0 l/m 0 min 0 min 84 W/m 2,1 km/h (1 Bft) 100,00 %
03.12.2016 15:04 -0,3 C 0,0 C -1,7 C 97 % 15 lf 1025,4 hPa 0,0 l/m 2 min 0 min 86 W/m 4,2 km/h (1 Bft) 100,00 %
03.12.2016 15:06 -0,4 C 0,0 C -1,7 C 97 % 15 lf 1025,4 hPa 0,0 l/m 0 min 0 min 75 W/m 6,3 km/h (2 Bft) 97,87 %
03.12.2016 15:08 -0,4 C 0,0 C -1,7 C 97 % 15 lf 1025,4 hPa 0,0 l/m 0 min 0 min 68 W/m 4,2 km/h (1 Bft) 97,83 %
03.12.2016 15:10 -0,4 C 0,0 C -1,7 C 97 % 15 lf 1025,4 hPa 0,0 l/m 2 min 0 min 79 W/m 4,2 km/h (1 Bft) 100,00 %
03.12.2016 15:12 -0,4 C 0,0 C -1,7 C 97 % 15 lf 1025,4 hPa 0,0 l/m 2 min 0 min 81 W/m 4,2 km/h (1 Bft) 97,87 %
03.12.2016 15:14 -0,4 C 0,0 C -1,7 C 97 % 15 lf 1025,4 hPa 0,0 l/m 2 min 0 min 82 W/m 2,1 km/h (1 Bft) 95,74 %
03.12.2016 15:16 -0,4 C 0,0 C -1,7 C 97 % 15 lf 1025,5 hPa 0,0 l/m 2 min 0 min 83 W/m 2,1 km/h (1 Bft) 97,87 %
03.12.2016 15:18 -0,4 C 0,0 C -1,7 C 97 % 15 lf 1025,4 hPa 0,0 l/m 2 min 0 min 79 W/m 4,2 km/h (1 Bft) 97,87 %
03.12.2016 15:20 -0,4 C 0,0 C -1,7 C 97 % 15 lf 1025,4 hPa 0,0 l/m 0 min 0 min 68 W/m 4,2 km/h (1 Bft) 100,00 %
03.12.2016 15:22 -0,4 C 0,0 C -1,7 C 97 % 15 lf 1025,4 hPa 0,0 l/m 0 min 0 min 55 W/m 4,2 km/h (1 Bft) 97,87 %
03.12.2016 15:24 -0,4 C -0,6 C -1,7 C 97 % 15 lf 1025,4 hPa 0,0 l/m 0 min 0 min 51 W/m 4,2 km/h (1 Bft) 97,87 %
03.12.2016 15:26 -0,5 C -0,6 C -1,7 C 97 % 15 lf 1025,3 hPa 0,0 l/m 0 min 0 min 50 W/m 4,2 km/h (1 Bft) 95,74 %
03.12.2016 15:28 -0,5 C 0,0 C -1,7 C 97 % 15 lf 1025,4 hPa 0,0 l/m 0 min 0 min 53 W/m 4,2 km/h (1 Bft) 95,74 %
03.12.2016 15:30 -0,5 C 0,0 C -1,7 C 97 % 15 lf 1025,4 hPa 0,0 l/m 0 min 0 min 56 W/m 4,2 km/h (1 Bft) 95,74 %
03.12.2016 15:32 -0,5 C 0,0 C -1,7 C 97 % 15 lf 1025,4 hPa 0,0 l/m 0 min 0 min 53 W/m 4,2 km/h (1 Bft) 97,83 %
03.12.2016 15:34 -0,6 C 0,0 C -1,7 C 97 % 15 lf 1025,4 hPa 0,0 l/m 0 min 0 min 52 W/m 2,1 km/h (1 Bft) 97,87 %
03.12.2016 15:36 -0,6 C -0,6 C -1,7 C 97 % 15 lf 1025,5 hPa 0,0 l/m 2 min 0 min 53 W/m 4,2 km/h (1 Bft) 93,62 %
03.12.2016 15:38 -0,6 C -0,6 C -1,7 C 97 % 15 lf 1025,4 hPa 0,0 l/m 2 min 0 min 53 W/m 2,1 km/h (1 Bft) 95,74 %
03.12.2016 15:40 -0,6 C -0,6 C -1,7 C 97 % 15 lf 1025,4 hPa 0,0 l/m 2 min 0 min 50 W/m 2,1 km/h (1 Bft) 97,87 %
03.12.2016 15:42 -0,6 C -0,6 C -1,7 C 97 % 15 lf 1025,4 hPa 0,0 l/m 2 min 0 min 47 W/m 4,2 km/h (1 Bft) 95,65 %
03.12.2016 15:44 -0,6 C -0,6 C -1,7 C 97 % 15 lf 1025,4 hPa 0,0 l/m 0 min 0 min 42 W/m 2,1 km/h (1 Bft) 97,87 %
03.12.2016 15:46 -0,6 C -0,6 C -1,7 C 97 % 15 lf 1025,5 hPa 0,0 l/m 2 min 0 min 47 W/m 2,1 km/h (1 Bft) 95,74 %
03.12.2016 15:48 -0,6 C -0,6 C -1,1 C 97 % 15 lf 1025,5 hPa 0,0 l/m 2 min 0 min 52 W/m 0,0 km/h (0 Bft) 97,87 %
03.12.2016 15:50 -0,6 C 0,0 C -1,1 C 97 % 15 lf 1025,5 hPa 0,0 l/m 2 min 0 min 47 W/m 4,2 km/h (1 Bft) 93,62 %
03.12.2016 15:52 -0,6 C 0,0 C -1,1 C 97 % 15 lf 1025,5 hPa 0,0 l/m 2 min 0 min 44 W/m 2,1 km/h (1 Bft) 93,62 %
03.12.2016 15:54 -0,6 C -0,6 C -1,1 C 97 % 15 lf 1025,4 hPa 0,0 l/m 2 min 0 min 40 W/m 2,1 km/h (1 Bft) 93,48 %
03.12.2016 15:56 -0,6 C -0,6 C -1,1 C 97 % 15 lf 1025,6 hPa 0,0 l/m 2 min 0 min 37 W/m 2,1 km/h (1 Bft) 91,49 %
03.12.2016 15:58 -0,6 C -0,6 C -1,1 C 97 % 15 lf 1025,5 hPa 0,0 l/m 0 min 0 min 23 W/m 4,2 km/h (1 Bft) 91,49 %
03.12.2016 16:00 -0,6 C -0,6 C -1,1 C 97 % 15 lf 1025,6 hPa 0,0 l/m 0 min 0 min 15 W/m 4,2 km/h (1 Bft) 97,87 %
03.12.2016 16:02 -0,6 C -0,6 C -1,1 C 97 % 15 lf 1025,5 hPa 0,0 l/m 0 min 0 min 14 W/m 2,1 km/h (1 Bft) 91,49 %
03.12.2016 16:04 -0,6 C -0,6 C -1,1 C 97 % 15 lf 1025,6 hPa 0,0 l/m 0 min 0 min 12 W/m 4,2 km/h (1 Bft) 91,49 %
03.12.2016 16:06 -0,6 C -0,6 C -1,1 C 97 % 15 lf 1025,6 hPa 0,0 l/m 0 min 0 min 11 W/m 4,2 km/h (1 Bft) 93,48 %
03.12.2016 16:08 -0,7 C -1,1 C -1,1 C 97 % 15 lf 1025,6 hPa 0,0 l/m 0 min 0 min 10 W/m 6,3 km/h (2 Bft) 93,62 %
03.12.2016 16:10 -0,7 C -0,6 C -1,1 C 97 % 15 lf 1025,7 hPa 0,0 l/m 0 min 0 min 9 W/m 4,2 km/h (1 Bft) 95,74 %
03.12.2016 16:12 -0,7 C -1,1 C -1,1 C 97 % 15 lf 1025,7 hPa 0,0 l/m 0 min 0 min 7 W/m 8,4 km/h (2 Bft) 93,62 %
03.12.2016 16:14 -0,7 C -1,1 C -1,1 C 97 % 15 lf 1025,7 hPa 0,0 l/m 0 min 0 min 7 W/m 8,4 km/h (2 Bft) 93,62 %
03.12.2016 16:16 -0,8 C -1,1 C -1,7 C 97 % 15 lf 1025,7 hPa 0,0 l/m 0 min 0 min 6 W/m 4,2 km/h (1 Bft) 93,62 %
03.12.2016 16:18 -0,8 C -1,1 C -1,7 C 97 % 15 lf 1025,7 hPa 0,0 l/m 0 min 0 min 6 W/m 4,2 km/h (1 Bft) 93,48 %
03.12.2016 16:20 -0,8 C -1,1 C -1,7 C 97 % 15 lf 1025,8 hPa 0,0 l/m 0 min 0 min 5 W/m 6,3 km/h (2 Bft) 93,62 %
03.12.2016 16:22 -0,8 C -1,1 C -1,7 C 97 % 15 lf 1025,8 hPa 0,0 l/m 0 min 0 min 4 W/m 4,2 km/h (1 Bft) 89,36 %
03.12.2016 16:24 -0,8 C -1,1 C -1,7 C 97 % 15 lf 1025,7 hPa 0,0 l/m 0 min 0 min 4 W/m 4,2 km/h (1 Bft) 96,00 %
03.12.2016 16:26 -0,8 C -1,1 C -1,7 C 97 % 15 lf 1025,7 hPa 0,0 l/m 0 min 0 min 3 W/m 4,2 km/h (1 Bft) 91,49 %
03.12.2016 16:28 -0,8 C -1,1 C -1,7 C 97 % 15 lf 1025,8 hPa 0,0 l/m 0 min 0 min 2 W/m 4,2 km/h (1 Bft) 93,48 %
03.12.2016 16:30 -0,9 C -1,1 C -1,7 C 97 % 15 lf 1025,8 hPa 0,0 l/m 0 min 0 min 2 W/m 4,2 km/h (1 Bft) 95,74 %
03.12.2016 16:32 -0,9 C -1,1 C -1,7 C 97 % 15 lf 1025,8 hPa 0,0 l/m 0 min 0 min 1 W/m 4,2 km/h (1 Bft) 89,36 %
03.12.2016 16:34 -0,9 C -1,1 C -1,7 C 97 % 14 lf 1025,7 hPa 0,0 l/m 0 min 0 min 0 W/m 4,2 km/h (1 Bft) 93,62 %
03.12.2016 16:36 -0,9 C -1,1 C -1,7 C 97 % 13 lf 1025,8 hPa 0,0 l/m 0 min 0 min 0 W/m 4,2 km/h (1 Bft) 95,74 %
03.12.2016 16:38 -0,9 C -1,1 C -1,7 C 97 % 13 lf 1025,7 hPa 0,0 l/m 0 min 0 min 0 W/m 4,2 km/h (1 Bft) 91,49 %
03.12.2016 16:40 -1,0 C -1,1 C -1,7 C 97 % 12 lf 1025,7 hPa 0,0 l/m 0 min 0 min 1 W/m 4,2 km/h (1 Bft) 97,83 %
03.12.2016 16:42 -1,0 C -1,1 C -1,7 C 97 % 12 lf 1025,8 hPa 0,0 l/m 0 min 0 min 0 W/m 4,2 km/h (1 Bft) 95,74 %
03.12.2016 16:44 -1,0 C -1,1 C -1,7 C 97 % 12 lf 1025,8 hPa 0,0 l/m 0 min 0 min 0 W/m 4,2 km/h (1 Bft) 97,87 %
03.12.2016 16:46 -1,1 C -1,1 C -2,2 C 97 % 11 lf 1025,7 hPa 0,0 l/m 0 min 0 min 0 W/m 2,1 km/h (1 Bft) 94,59 %
03.12.2016 16:48 -1,1 C -1,1 C -2,2 C 97 % 10 lf 1025,7 hPa 0,0 l/m 0 min 0 min 0 W/m 2,1 km/h (1 Bft) 93,62 %
03.12.2016 16:50 -1,1 C -1,1 C -2,2 C 97 % 10 lf 1025,7 hPa 0,0 l/m 0 min 0 min 0 W/m 0,0 km/h (0 Bft) 95,74 %
03.12.2016 16:52 -1,1 C -1,1 C -2,2 C 97 % 10 lf 1025,7 hPa 0,0 l/m 0 min 0 min 5 W/m 0,0 km/h (0 Bft) 97,87 %
03.12.2016 16:54 -1,1 C -1,7 C -2,2 C 97 % 10 lf 1025,7 hPa 0,0 l/m 0 min 0 min 1 W/m 0,0 km/h (0 Bft) 97,83 %
03.12.2016 16:56 -1,2 C -1,7 C -2,2 C 97 % 8 lf 1025,7 hPa 0,0 l/m 0 min 0 min 0 W/m 0,0 km/h (0 Bft) 95,74 %
03.12.2016 16:58 -1,2 C -1,7 C -2,2 C 97 % 8 lf 1025,7 hPa 0,0 l/m 0 min 0 min 0 W/m 0,0 km/h (0 Bft) 93,62 %
03.12.2016 17:00 -1,2 C -1,7 C -2,2 C 97 % 7 lf 1025,7 hPa 0,0 l/m 0 min 0 min 0 W/m 0,0 km/h (0 Bft) 98,15 %
03.12.2016 17:02 -1,2 C -1,7 C -2,2 C 97 % 6 lf 1025,7 hPa 0,0 l/m 0 min 0 min 0 W/m 0,0 km/h (0 Bft) 93,62 %
03.12.2016 17:04 -1,2 C -1,7 C -2,2 C 97 % 5 lf 1025,7 hPa 0,0 l/m 0 min 0 min 0 W/m 0,0 km/h (0 Bft) 95,65 %
03.12.2016 17:06 -1,3 C -1,7 C -2,2 C 97 % 6 lf 1025,7 hPa 0,0 l/m 0 min 0 min 0 W/m 0,0 km/h (0 Bft) 95,74 %
03.12.2016 17:08 -1,3 C -1,7 C -2,2 C 97 % 5 lf 1025,7 hPa 0,0 l/m 0 min 0 min 0 W/m 0,0 km/h (0 Bft) 97,87 %
03.12.2016 17:10 -1,3 C -1,7 C -2,2 C 97 % 5 lf 1025,7 hPa 0,0 l/m 0 min 0 min 0 W/m 0,0 km/h (0 Bft) 97,87 %
03.12.2016 17:12 -1,3 C -1,7 C -2,8 C 97 % 5 lf 1025,8 hPa 0,0 l/m 0 min 0 min 0 W/m 0,0 km/h (0 Bft) 93,62 %
03.12.2016 17:14 -1,3 C -1,7 C -2,8 C 97 % 5 lf 1025,7 hPa 0,0 l/m 0 min 0 min 0 W/m 0,0 km/h (0 Bft) 93,62 %
03.12.2016 17:16 -1,3 C -1,7 C -2,8 C 97 % 5 lf 1025,7 hPa 0,0 l/m 0 min 0 min 0 W/m 0,0 km/h (0 Bft) 97,83 %
03.12.2016 17:18 -1,4 C -1,7 C -2,8 C 97 % 4 lf 1025,8 hPa 0,0 l/m 0 min 0 min 0 W/m 0,0 km/h (0 Bft) 95,74 %
03.12.2016 17:20 -1,4 C -1,7 C -2,8 C 97 % 4 lf 1025,8 hPa 0,0 l/m 0 min 0 min 0 W/m 0,0 km/h (0 Bft) 93,62 %
03.12.2016 17:22 -1,4 C -1,7 C -2,8 C 97 % 4 lf 1025,8 hPa 0,0 l/m 0 min 0 min 0 W/m 0,0 km/h (0 Bft) 95,74 %
03.12.2016 17:24 -1,4 C -1,7 C -2,8 C 97 % 4 lf 1025,8 hPa 0,0 l/m 0 min 0 min 0 W/m 0,0 km/h (0 Bft) 95,74 %
03.12.2016 17:26 -1,4 C -1,7 C -2,8 C 97 % 4 lf 1025,8 hPa 0,0 l/m 0 min 0 min 5 W/m 0,0 km/h (0 Bft) 97,87 %
03.12.2016 17:28 -1,4 C -1,7 C -2,8 C 97 % 4 lf 1025,8 hPa 0,0 l/m 0 min 0 min 0 W/m 0,0 km/h (0 Bft) 97,83 %
03.12.2016 17:30 -1,4 C -1,7 C -2,8 C 97 % 4 lf 1025,9 hPa 0,0 l/m 0 min 0 min 0 W/m 0,0 km/h (0 Bft) 93,62 %
03.12.2016 17:32 -1,5 C -1,7 C -2,8 C 97 % 4 lf 1025,9 hPa 0,0 l/m 0 min 0 min 0 W/m 0,0 km/h (0 Bft) 93,62 %
03.12.2016 17:34 -1,5 C -1,7 C -2,8 C 97 % 4 lf 1025,8 hPa 0,0 l/m 0 min 0 min 0 W/m 0,0 km/h (0 Bft) 97,87 %
03.12.2016 17:36 -1,5 C -1,7 C -2,8 C 97 % 4 lf 1025,9 hPa 0,0 l/m 0 min 0 min 0 W/m 0,0 km/h (0 Bft) 100,00 %
03.12.2016 17:38 -1,5 C -1,7 C -2,8 C 97 % 4 lf 1025,9 hPa 0,0 l/m 0 min 0 min 0 W/m 0,0 km/h (0 Bft) 95,74 %
03.12.2016 17:40 -1,6 C -1,7 C -2,8 C 97 % 4 lf 1025,9 hPa 0,0 l/m 0 min 0 min 0 W/m 0,0 km/h (0 Bft) 100,00 %
03.12.2016 17:42 -1,6 C -2,2 C -2,8 C 97 % 4 lf 1025,9 hPa 0,0 l/m 0 min 0 min 0 W/m 0,0 km/h (0 Bft) 95,74 %
03.12.2016 17:44 -1,6 C -2,2 C -2,8 C 97 % 4 lf 1025,9 hPa 0,0 l/m 0 min 0 min 0 W/m 0,0 km/h (0 Bft) 97,87 %
03.12.2016 17:46 -1,6 C -1,7 C -2,8 C 97 % 3 lf 1026,0 hPa 0,0 l/m 0 min 0 min 0 W/m 0,0 km/h (0 Bft) 93,62 %
03.12.2016 17:48 -1,6 C -1,7 C -2,8 C 97 % 3 lf 1025,9 hPa 0,0 l/m 0 min 0 min 0 W/m 0,0 km/h (0 Bft) 100,00 %
03.12.2016 17:50 -1,6 C -1,7 C -2,8 C 97 % 3 lf 1026,0 hPa 0,0 l/m 0 min 0 min 0 W/m 0,0 km/h (0 Bft) 97,87 %
03.12.2016 17:52 -1,7 C -1,7 C -2,8 C 97 % 3 lf 1026,0 hPa 0,0 l/m 0 min 0 min 0 W/m 6,3 km/h (2 Bft) 97,83 %
03.12.2016 17:54 -1,7 C -2,2 C -2,8 C 97 % 3 lf 1026,0 hPa 0,0 l/m 0 min 0 min 0 W/m 4,2 km/h (1 Bft) 100,00 %
03.12.2016 17:56 -1,7 C -2,2 C -2,8 C 97 % 3 lf 1026,0 hPa 0,0 l/m 0 min 0 min 0 W/m 4,2 km/h (1 Bft) 100,00 %
03.12.2016 17:58 -1,8 C -2,2 C -2,8 C 97 % 3 lf 1026,0 hPa 0,0 l/m 0 min 0 min 0 W/m 2,1 km/h (1 Bft) 100,00 %
03.12.2016 18:00 -1,8 C -2,2 C -3,3 C 97 % 3 lf 1026,0 hPa 0,0 l/m 0 min 0 min 0 W/m 4,2 km/h (1 Bft) 100,00 %
03.12.2016 18:02 -1,8 C -2,2 C -3,3 C 97 % 3 lf 1025,9 hPa 0,0 l/m 0 min 0 min 0 W/m 4,2 km/h (1 Bft) 97,83 %
03.12.2016 18:06 -1,8 C -2,2 C -3,3 C 97 % 3 lf 1025,9 hPa 0,0 l/m 0 min 0 min 0 W/m 4,2 km/h (1 Bft) 96,47 %
03.12.2016 18:08 -1,9 C -2,2 C -3,3 C 97 % 3 lf 1025,9 hPa 0,0 l/m 0 min 0 min 0 W/m 4,2 km/h (1 Bft) 97,87 %
03.12.2016 18:10 -1,9 C -2,2 C -3,3 C 97 % 3 lf 1025,9 hPa 0,0 l/m 0 min 0 min 0 W/m 4,2 km/h (1 Bft) 100,00 %
03.12.2016 18:12 -2,0 C -2,2 C -3,3 C 97 % 3 lf 1025,9 hPa 0,0 l/m 0 min 0 min 0 W/m 0,0 km/h (0 Bft) 97,87 %
03.12.2016 18:14 -2,0 C -2,2 C -3,3 C 97 % 3 lf 1025,9 hPa 0,0 l/m 0 min 0 min 0 W/m 0,0 km/h (0 Bft) 93,62 %
03.12.2016 18:16 -2,0 C -2,2 C -3,3 C 97 % 3 lf 1025,9 hPa 0,0 l/m 0 min 0 min 0 W/m 0,0 km/h (0 Bft) 97,92 %
03.12.2016 18:18 -2,1 C -2,2 C -3,3 C 97 % 3 lf 1025,9 hPa 0,0 l/m 0 min 0 min 0 W/m 2,1 km/h (1 Bft) 93,62 %
03.12.2016 18:20 -2,1 C -2,2 C -3,3 C 97 % 3 lf 1026,0 hPa 0,0 l/m 0 min 0 min 0 W/m 0,0 km/h (0 Bft) 97,87 %
03.12.2016 18:22 -2,1 C -2,2 C -3,3 C 97 % 3 lf 1026,0 hPa 0,0 l/m 0 min 0 min 0 W/m 0,0 km/h (0 Bft) 95,74 %
03.12.2016 18:24 -2,1 C -2,8 C -3,9 C 97 % 3 lf 1025,9 hPa 0,0 l/m 0 min 0 min 0 W/m 0,0 km/h (0 Bft) 97,87 %
03.12.2016 18:26 -2,1 C -2,8 C -3,9 C 97 % 3 lf 1025,9 hPa 0,0 l/m 0 min 0 min 0 W/m 0,0 km/h (0 Bft) 95,65 %
03.12.2016 18:28 -2,1 C -2,8 C -3,9 C 97 % 2 lf 1025,9 hPa 0,0 l/m 0 min 0 min 0 W/m 0,0 km/h (0 Bft) 95,74 %
03.12.2016 18:30 -2,2 C -2,8 C -3,9 C 97 % 2 lf 1025,9 hPa 0,0 l/m 0 min 0 min 0 W/m 0,0 km/h (0 Bft) 95,74 %
03.12.2016 18:32 -2,2 C -2,8 C -3,9 C 97 % 2 lf 1025,9 hPa 0,0 l/m 0 min 0 min 0 W/m 0,0 km/h (0 Bft) 97,87 %
03.12.2016 18:34 -2,2 C -2,8 C -3,9 C 97 % 3 lf 1025,9 hPa 0,0 l/m 0 min 0 min 0 W/m 0,0 km/h (0 Bft) 97,87 %
03.12.2016 18:36 -2,2 C -2,8 C -3,9 C 97 % 2 lf 1025,9 hPa 0,0 l/m 0 min 0 min 0 W/m 0,0 km/h (0 Bft) 95,74 %
03.12.2016 18:38 -2,2 C -2,8 C -3,9 C 97 % 2 lf 1025,9 hPa 0,0 l/m 0 min 0 min 0 W/m 0,0 km/h (0 Bft) 100,00 %
03.12.2016 18:40 -2,3 C -2,2 C -3,9 C 97 % 2 lf 1025,9 hPa 0,0 l/m 0 min 0 min 0 W/m 0,0 km/h (0 Bft) 95,74 %
03.12.2016 18:42 -2,3 C -2,8 C -3,9 C 97 % 2 lf 1025,9 hPa 0,0 l/m 0 min 0 min 0 W/m 0,0 km/h (0 Bft) 93,62 %
03.12.2016 18:44 -2,3 C -2,8 C -3,9 C 97 % 2 lf 1026,0 hPa 0,0 l/m 0 min 0 min 0 W/m 0,0 km/h (0 Bft) 97,87 %
03.12.2016 18:46 -2,3 C -2,8 C -3,9 C 97 % 2 lf 1025,9 hPa 0,0 l/m 0 min 0 min 0 W/m 0,0 km/h (0 Bft) 91,49 %
03.12.2016 18:48 -2,3 C -2,8 C -3,9 C 97 % 2 lf 1026,0 hPa 0,0 l/m 0 min 0 min 0 W/m 0,0 km/h (0 Bft) 97,83 %
03.12.2016 18:50 -2,3 C -2,8 C -3,9 C 97 % 2 lf 1026,0 hPa 0,0 l/m 0 min 0 min 0 W/m 0,0 km/h (0 Bft) 95,74 %
03.12.2016 18:52 -2,4 C -2,8 C -3,9 C 97 % 2 lf 1026,0 hPa 0,0 l/m 0 min 0 min 0 W/m 2,1 km/h (1 Bft) 97,87 %
03.12.2016 18:54 -2,4 C -2,8 C -3,9 C 97 % 2 lf 1025,9 hPa 0,0 l/m 0 min 0 min 0 W/m 2,1 km/h (1 Bft) 95,74 %
03.12.2016 18:56 -2,4 C -2,8 C -3,9 C 97 % 2 lf 1026,0 hPa 0,0 l/m 0 min 0 min 2 W/m 0,0 km/h (0 Bft) 91,49 %
03.12.2016 18:58 -2,4 C -2,8 C -4,4 C 97 % 2 lf 1025,9 hPa 0,0 l/m 0 min 0 min 0 W/m 0,0 km/h (0 Bft) 97,87 %
03.12.2016 19:00 -2,4 C -2,8 C -4,4 C 97 % 2 lf 1026,0 hPa 0,0 l/m 0 min 0 min 0 W/m 0,0 km/h (0 Bft) 91,30 %
03.12.2016 19:02 -2,4 C -3,3 C -4,4 C 97 % 2 lf 1025,9 hPa 0,0 l/m 0 min 0 min 0 W/m 0,0 km/h (0 Bft) 97,87 %
03.12.2016 19:04 -2,5 C -3,3 C -4,4 C 97 % 2 lf 1025,9 hPa 0,0 l/m 0 min 0 min 0 W/m 0,0 km/h (0 Bft) 97,87 %
03.12.2016 19:06 -2,5 C -3,3 C -4,4 C 97 % 2 lf 1026,0 hPa 0,0 l/m 0 min 0 min 0 W/m 0,0 km/h (0 Bft) 97,87 %
03.12.2016 19:08 -2,5 C -3,3 C -4,4 C 97 % 2 lf 1026,0 hPa 0,0 l/m 0 min 0 min 0 W/m 0,0 km/h (0 Bft) 100,00 %
03.12.2016 19:10 -2,6 C -3,3 C -4,4 C 97 % 2 lf 1026,0 hPa 0,0 l/m 0 min 0 min 0 W/m 0,0 km/h (0 Bft) 100,00 %
03.12.2016 19:12 -2,6 C -3,3 C -4,4 C 97 % 2 lf 1025,9 hPa 0,0 l/m 0 min 0 min 0 W/m 0,0 km/h (0 Bft) 97,83 %
03.12.2016 19:14 -2,6 C -3,3 C -4,4 C 97 % 2 lf 1026,0 hPa 0,0 l/m 0 min 0 min 0 W/m 0,0 km/h (0 Bft) 97,37 %
03.12.2016 19:16 -2,6 C -3,3 C -4,4 C 97 % 2 lf 1026,0 hPa 0,0 l/m 0 min 0 min 0 W/m 0,0 km/h (0 Bft) 100,00 %
03.12.2016 19:17 -2,6 C -3,3 C -4,4 C 97 % 2 lf 1026,0 hPa 0,0 l/m 0 min 0 min 0 W/m 0,0 km/h (0 Bft) 91,30 %
03.12.2016 19:18 -2,6 C -3,3 C -4,4 C 97 % 2 lf 1026,0 hPa 0,0 l/m 0 min 0 min 0 W/m 0,0 km/h (0 Bft) 100,00 %
03.12.2016 19:19 -2,6 C -3,3 C -4,4 C 97 % 2 lf 1026,0 hPa 0,0 l/m 0 min 0 min 0 W/m 0,0 km/h (0 Bft) 100,00 %
03.12.2016 19:22 -2,7 C -3,3 C -4,4 C 97 % 2 lf 1026,0 hPa 0,0 l/m 0 min 0 min 0 W/m 0,0 km/h (0 Bft) 97,87 %
03.12.2016 19:24 -2,7 C -3,3 C -4,4 C 97 % 2 lf 1026,0 hPa 0,0 l/m 0 min 0 min 0 W/m 2,1 km/h (1 Bft) 100,00 %
03.12.2016 19:26 -2,7 C -3,3 C -4,4 C 97 % 2 lf 1026,0 hPa 0,0 l/m 0 min 0 min 0 W/m 2,1 km/h (1 Bft) 97,87 %
03.12.2016 19:28 -2,7 C -3,3 C -4,4 C 97 % 2 lf 1026,0 hPa 0,0 l/m 0 min 0 min 0 W/m 2,1 km/h (1 Bft) 97,87 %
03.12.2016 19:30 -2,8 C -3,3 C -4,4 C 97 % 2 lf 1026,0 hPa 0,0 l/m 0 min 0 min 0 W/m 2,1 km/h (1 Bft) 100,00 %
03.12.2016 19:32 -2,8 C -3,3 C -4,4 C 97 % 2 lf 1026,0 hPa 0,0 l/m 0 min 0 min 0 W/m 4,2 km/h (1 Bft) 100,00 %
03.12.2016 19:34 -2,8 C -3,3 C -4,4 C 97 % 2 lf 1026,0 hPa 0,0 l/m 0 min 0 min 0 W/m 4,2 km/h (1 Bft) 100,00 %
03.12.2016 19:36 -2,8 C -3,3 C -4,4 C 97 % 2 lf 1026,1 hPa 0,0 l/m 0 min 0 min 0 W/m 4,2 km/h (1 Bft) 97,96 %
03.12.2016 19:38 -2,8 C -3,3 C -4,4 C 97 % 2 lf 1026,0 hPa 0,0 l/m 0 min 0 min 0 W/m 2,1 km/h (1 Bft) 95,74 %
03.12.2016 19:40 -2,8 C -3,3 C -4,4 C 97 % 2 lf 1026,0 hPa 0,0 l/m 0 min 0 min 0 W/m 4,2 km/h (1 Bft) 93,62 %
03.12.2016 19:42 -2,9 C -3,3 C -4,4 C 97 % 2 lf 1026,0 hPa 0,0 l/m 0 min 0 min 0 W/m 4,2 km/h (1 Bft) 97,87 %
03.12.2016 19:44 -2,9 C -3,3 C -4,4 C 97 % 2 lf 1026,1 hPa 0,0 l/m 0 min 0 min 0 W/m 2,1 km/h (1 Bft) 89,36 %
03.12.2016 19:46 -2,9 C -3,3 C -4,4 C 97 % 2 lf 1026,1 hPa 0,0 l/m 0 min 0 min 0 W/m 4,2 km/h (1 Bft) 97,87 %
03.12.2016 19:48 -2,9 C -3,3 C -4,4 C 97 % 2 lf 1026,1 hPa 0,0 l/m 0 min 0 min 0 W/m 2,1 km/h (1 Bft) 97,83 %
03.12.2016 19:50 -2,9 C -3,3 C -4,4 C 97 % 2 lf 1026,1 hPa 0,0 l/m 0 min 0 min 0 W/m 4,2 km/h (1 Bft) 91,49 %
03.12.2016 19:52 -3,0 C -3,3 C -4,4 C 97 % 2 lf 1026,1 hPa 0,0 l/m 0 min 0 min 0 W/m 6,3 km/h (2 Bft) 91,49 %
03.12.2016 19:54 -3,0 C -3,3 C -4,4 C 97 % 2 lf 1026,1 hPa 0,0 l/m 0 min 0 min 0 W/m 4,2 km/h (1 Bft) 93,62 %
03.12.2016 19:56 -3,0 C -3,3 C -4,4 C 97 % 2 lf 1026,1 hPa 0,0 l/m 0 min 0 min 0 W/m 4,2 km/h (1 Bft) 91,49 %
03.12.2016 19:58 -3,1 C -3,3 C -4,4 C 97 % 2 lf 1026,1 hPa 0,0 l/m 0 min 0 min 0 W/m 4,2 km/h (1 Bft) 95,74 %
03.12.2016 20:00 -3,1 C -3,3 C -4,4 C 97 % 2 lf 1026,1 hPa 0,0 l/m 0 min 0 min 0 W/m 4,2 km/h (1 Bft) 93,48 %
03.12.2016 20:02 -3,1 C -3,3 C -4,4 C 97 % 2 lf 1026,2 hPa 0,0 l/m 0 min 0 min 0 W/m 6,3 km/h (2 Bft) 91,49 %
03.12.2016 20:04 -3,1 C -3,3 C -4,4 C 97 % 2 lf 1026,2 hPa 0,0 l/m 0 min 0 min 0 W/m 6,3 km/h (2 Bft) 91,49 %
03.12.2016 20:06 -3,1 C -3,3 C -4,4 C 97 % 2 lf 1026,2 hPa 0,0 l/m 0 min 0 min 0 W/m 4,2 km/h (1 Bft) 93,18 %
03.12.2016 20:08 -3,1 C -3,3 C -4,4 C 97 % 2 lf 1026,1 hPa 0,0 l/m 0 min 0 min 0 W/m 4,2 km/h (1 Bft) 91,49 %
03.12.2016 20:10 -3,1 C -3,9 C -5,0 C 97 % 2 lf 1026,1 hPa 0,0 l/m 0 min 0 min 0 W/m 4,2 km/h (1 Bft) 93,48 %
03.12.2016 20:12 -3,1 C -3,9 C -5,0 C 97 % 2 lf 1026,1 hPa 0,0 l/m 0 min 0 min 0 W/m 6,3 km/h (2 Bft) 89,36 %
03.12.2016 20:14 -3,1 C -3,3 C -5,0 C 97 % 2 lf 1026,1 hPa 0,0 l/m 0 min 0 min 0 W/m 4,2 km/h (1 Bft) 93,62 %
03.12.2016 20:16 -3,2 C -3,9 C -5,0 C 97 % 2 lf 1026,1 hPa 0,0 l/m 0 min 0 min 0 W/m 4,2 km/h (1 Bft) 90,00 %
03.12.2016 20:18 -3,2 C -3,3 C -5,0 C 97 % 2 lf 1026,1 hPa 0,0 l/m 0 min 0 min 0 W/m 6,3 km/h (2 Bft) 93,62 %
03.12.2016 20:20 -3,2 C -3,3 C -5,0 C 97 % 2 lf 1026,1 hPa 0,0 l/m 0 min 0 min 0 W/m 4,2 km/h (1 Bft) 93,48 %
03.12.2016 20:22 -3,2 C -3,3 C -5,0 C 97 % 2 lf 1026,1 hPa 0,0 l/m 0 min 0 min 0 W/m 4,2 km/h (1 Bft) 95,74 %
03.12.2016 20:24 -3,2 C -3,3 C -5,0 C 97 % 2 lf 1026,0 hPa 0,0 l/m 0 min 0 min 0 W/m 4,2 km/h (1 Bft) 93,62 %
03.12.2016 20:26 -3,3 C -3,9 C -5,0 C 97 % 2 lf 1026,0 hPa 0,0 l/m 0 min 0 min 0 W/m 2,1 km/h (1 Bft) 95,74 %
03.12.2016 20:28 -3,3 C -3,3 C -5,0 C 97 % 2 lf 1026,0 hPa 0,0 l/m 0 min 0 min 0 W/m 4,2 km/h (1 Bft) 95,74 %
03.12.2016 20:30 -3,3 C -3,9 C -5,0 C 97 % 2 lf 1026,1 hPa 0,0 l/m 0 min 0 min 0 W/m 6,3 km/h (2 Bft) 95,74 %
03.12.2016 20:32 -3,3 C -3,9 C -5,0 C 97 % 2 lf 1026,0 hPa 0,0 l/m 0 min 0 min 0 W/m 8,4 km/h (2 Bft) 95,65 %
03.12.2016 20:34 -3,4 C -3,9 C -5,0 C 97 % 2 lf 1026,0 hPa 0,0 l/m 0 min 0 min 0 W/m 6,3 km/h (2 Bft) 93,62 %
03.12.2016 20:36 -3,4 C -3,9 C -5,0 C 97 % 2 lf 1026,0 hPa 0,0 l/m 0 min 0 min 0 W/m 6,3 km/h (2 Bft) 90,00 %
03.12.2016 20:38 -3,4 C -3,9 C -5,0 C 97 % 2 lf 1026,0 hPa 0,0 l/m 0 min 0 min 0 W/m 6,3 km/h (2 Bft) 93,62 %
03.12.2016 20:40 -3,4 C -3,9 C -5,0 C 97 % 2 lf 1026,0 hPa 0,0 l/m 0 min 0 min 0 W/m 6,3 km/h (2 Bft) 89,36 %
03.12.2016 20:42 -3,5 C -3,9 C -5,0 C 97 % 2 lf 1026,0 hPa 0,0 l/m 0 min 0 min 0 W/m 4,2 km/h (1 Bft) 97,83 %
03.12.2016 20:44 -3,5 C -3,9 C -5,0 C 97 % 2 lf 1026,1 hPa 0,0 l/m 0 min 0 min 0 W/m 6,3 km/h (2 Bft) 97,87 %
03.12.2016 20:46 -3,6 C -3,9 C -5,0 C 97 % 1 lf 1026,1 hPa 0,0 l/m 0 min 0 min 0 W/m 6,3 km/h (2 Bft) 100,00 %
03.12.2016 20:48 -3,6 C -3,9 C -5,0 C 97 % 1 lf 1026,1 hPa 0,0 l/m 0 min 0 min 0 W/m 6,3 km/h (2 Bft) 93,62 %
03.12.2016 20:50 -3,6 C -3,9 C -5,0 C 97 % 1 lf 1026,1 hPa 0,0 l/m 0 min 0 min 0 W/m 4,2 km/h (1 Bft) 89,36 %
03.12.2016 20:52 -3,6 C -3,9 C -5,0 C 97 % 1 lf 1026,0 hPa 0,0 l/m 0 min 0 min 0 W/m 4,2 km/h (1 Bft) 95,74 %
03.12.2016 20:54 -3,6 C -3,9 C -5,0 C 97 % 1 lf 1026,1 hPa 0,0 l/m 0 min 0 min 0 W/m 4,2 km/h (1 Bft) 93,62 %
03.12.2016 20:56 -3,7 C -4,4 C -5,6 C 97 % 1 lf 1026,1 hPa 0,0 l/m 0 min 0 min 0 W/m 6,3 km/h (2 Bft) 93,48 %
03.12.2016 20:58 -3,7 C -4,4 C -5,6 C 97 % 1 lf 1026,2 hPa 0,0 l/m 0 min 0 min 0 W/m 4,2 km/h (1 Bft) 91,49 %
03.12.2016 21:00 -3,7 C -3,9 C -5,6 C 97 % 1 lf 1026,2 hPa 0,0 l/m 0 min 0 min 0 W/m 4,2 km/h (1 Bft) 93,62 %
03.12.2016 21:02 -3,7 C -3,9 C -5,0 C 97 % 1 lf 1026,2 hPa 0,0 l/m 0 min 0 min 0 W/m 4,2 km/h (1 Bft) 95,74 %
03.12.2016 21:04 -3,7 C -3,9 C -5,0 C 97 % 1 lf 1026,1 hPa 0,0 l/m 0 min 0 min 0 W/m 4,2 km/h (1 Bft) 95,74 %
03.12.2016 21:06 -3,7 C -3,9 C -5,0 C 97 % 1 lf 1026,1 hPa 0,0 l/m 0 min 0 min 0 W/m 4,2 km/h (1 Bft) 95,74 %
03.12.2016 21:08 -3,8 C -3,9 C -5,0 C 97 % 1 lf 1026,1 hPa 0,0 l/m 0 min 0 min 0 W/m 4,2 km/h (1 Bft) 93,48 %
03.12.2016 21:10 -3,8 C -3,9 C -5,0 C 97 % 1 lf 1026,1 hPa 0,0 l/m 0 min 0 min 0 W/m 4,2 km/h (1 Bft) 95,74 %
03.12.2016 21:12 -3,8 C -3,9 C -5,6 C 97 % 1 lf 1026,2 hPa 0,0 l/m 0 min 0 min 0 W/m 2,1 km/h (1 Bft) 97,87 %
03.12.2016 21:14 -3,8 C -3,9 C -5,6 C 97 % 1 lf 1026,2 hPa 0,0 l/m 0 min 0 min 0 W/m 0,0 km/h (0 Bft) 95,74 %
03.12.2016 21:16 -3,8 C -3,9 C -5,6 C 97 % 1 lf 1026,2 hPa 0,0 l/m 0 min 0 min 0 W/m 0,0 km/h (0 Bft) 97,87 %
03.12.2016 21:18 -3,8 C -4,4 C -5,6 C 97 % 1 lf 1026,2 hPa 0,0 l/m 0 min 0 min 0 W/m 0,0 km/h (0 Bft) 91,49 %
03.12.2016 21:20 -3,8 C -4,4 C -5,6 C 97 % 1 lf 1026,2 hPa 0,0 l/m 0 min 0 min 0 W/m 0,0 km/h (0 Bft) 95,65 %
03.12.2016 21:22 -3,8 C -5,0 C -5,6 C 97 % 1 lf 1026,2 hPa 0,0 l/m 0 min 0 min 0 W/m 0,0 km/h (0 Bft) 95,74 %
03.12.2016 21:24 -3,8 C -5,0 C -5,6 C 97 % 1 lf 1026,2 hPa 0,0 l/m 0 min 0 min 0 W/m 0,0 km/h (0 Bft) 97,87 %
03.12.2016 21:26 -3,9 C -5,0 C -5,6 C 97 % 1 lf 1026,2 hPa 0,0 l/m 0 min 0 min 0 W/m 0,0 km/h (0 Bft) 93,62 %
03.12.2016 21:28 -3,9 C -5,0 C -5,6 C 97 % 1 lf 1026,2 hPa 0,0 l/m 0 min 0 min 0 W/m 0,0 km/h (0 Bft) 93,62 %
03.12.2016 21:30 -3,9 C -5,0 C -5,6 C 97 % 1 lf 1026,2 hPa 0,0 l/m 0 min 0 min 0 W/m 0,0 km/h (0 Bft) 100,00 %
03.12.2016 21:32 -3,9 C -5,0 C -6,1 C 97 % 1 lf 1026,2 hPa 0,0 l/m 0 min 0 min 0 W/m 0,0 km/h (0 Bft) 100,00 %
03.12.2016 21:34 -3,9 C -5,6 C -6,1 C 97 % 1 lf 1026,2 hPa 0,0 l/m 0 min 0 min 0 W/m 0,0 km/h (0 Bft) 100,00 %
03.12.2016 21:36 -3,9 C -5,0 C -6,1 C 97 % 1 lf 1026,2 hPa 0,0 l/m 0 min 0 min 0 W/m 0,0 km/h (0 Bft) 95,24 %
03.12.2016 21:38 -3,9 C -5,0 C -6,1 C 97 % 1 lf 1026,2 hPa 0,0 l/m 0 min 0 min 0 W/m 0,0 km/h (0 Bft) 93,62 %
03.12.2016 21:40 -3,9 C -4,4 C -6,1 C 97 % 1 lf 1026,2 hPa 0,0 l/m 0 min 0 min 0 W/m 0,0 km/h (0 Bft) 97,87 %
03.12.2016 21:42 -4,0 C -4,4 C -5,6 C 97 % 1 lf 1026,2 hPa 0,0 l/m 0 min 0 min 0 W/m 4,2 km/h (1 Bft) 97,87 %
03.12.2016 21:44 -4,0 C -4,4 C -5,6 C 97 % 1 lf 1026,2 hPa 0,0 l/m 0 min 0 min 0 W/m 4,2 km/h (1 Bft) 97,83 %
03.12.2016 21:46 -4,0 C -4,4 C -5,6 C 97 % 1 lf 1026,3 hPa 0,0 l/m 0 min 0 min 0 W/m 4,2 km/h (1 Bft) 91,49 %
03.12.2016 21:48 -4,1 C -4,4 C -5,6 C 97 % 1 lf 1026,2 hPa 0,0 l/m 0 min 0 min 0 W/m 2,1 km/h (1 Bft) 95,74 %
03.12.2016 21:50 -4,1 C -4,4 C -6,1 C 97 % 1 lf 1026,3 hPa 0,0 l/m 0 min 0 min 0 W/m 2,1 km/h (1 Bft) 95,74 %
03.12.2016 21:52 -4,1 C -4,4 C -6,1 C 97 % 1 lf 1026,3 hPa 0,0 l/m 0 min 0 min 0 W/m 2,1 km/h (1 Bft) 97,87 %
03.12.2016 21:54 -4,1 C -4,4 C -6,1 C 97 % 1 lf 1026,3 hPa 0,0 l/m 0 min 0 min 1 W/m 4,2 km/h (1 Bft) 97,83 %
03.12.2016 21:56 -4,1 C -4,4 C -5,6 C 97 % 1 lf 1026,3 hPa 0,0 l/m 0 min 0 min 0 W/m 4,2 km/h (1 Bft) 97,87 %
03.12.2016 21:58 -4,1 C -3,9 C -5,6 C 97 % 1 lf 1026,3 hPa 0,0 l/m 0 min 0 min 0 W/m 4,2 km/h (1 Bft) 95,74 %
03.12.2016 22:00 -4,1 C -4,4 C -5,6 C 97 % 1 lf 1026,3 hPa 0,0 l/m 0 min 0 min 0 W/m 4,2 km/h (1 Bft) 97,87 %
03.12.2016 22:02 -4,1 C -3,9 C -5,6 C 97 % 1 lf 1026,3 hPa 0,0 l/m 0 min 0 min 0 W/m 6,3 km/h (2 Bft) 97,87 %
03.12.2016 22:04 -4,1 C -3,9 C -5,6 C 97 % 1 lf 1026,3 hPa 0,0 l/m 0 min 0 min 0 W/m 4,2 km/h (1 Bft) 97,87 %
03.12.2016 22:06 -4,1 C -4,4 C -5,6 C 97 % 1 lf 1026,3 hPa 0,0 l/m 0 min 0 min 0 W/m 6,3 km/h (2 Bft) 94,12 %
03.12.2016 22:08 -4,1 C -4,4 C -5,6 C 97 % 1 lf 1026,4 hPa 0,0 l/m 0 min 0 min 0 W/m 8,4 km/h (2 Bft) 100,00 %
03.12.2016 22:10 -4,2 C -4,4 C -5,6 C 97 % 1 lf 1026,4 hPa 0,0 l/m 0 min 0 min 0 W/m 12,6 km/h (3 Bft) 97,87 %
03.12.2016 22:12 -4,2 C -4,4 C -5,6 C 97 % 1 lf 1026,3 hPa 0,0 l/m 0 min 0 min 0 W/m 12,6 km/h (3 Bft) 100,00 %
03.12.2016 22:14 -4,2 C -4,4 C -5,6 C 97 % 1 lf 1026,4 hPa 0,0 l/m 0 min 0 min 0 W/m 8,4 km/h (2 Bft) 100,00 %
03.12.2016 22:16 -4,2 C -4,4 C -5,6 C 97 % 1 lf 1026,4 hPa 0,0 l/m 0 min 0 min 0 W/m 6,3 km/h (2 Bft) 100,00 %
03.12.2016 22:18 -4,3 C -4,4 C -5,6 C 97 % 1 lf 1026,3 hPa 0,0 l/m 0 min 0 min 0 W/m 6,3 km/h (2 Bft) 97,87 %
03.12.2016 22:20 -4,3 C -4,4 C -5,0 C 97 % 1 lf 1026,4 hPa 0,0 l/m 0 min 0 min 0 W/m 6,3 km/h (2 Bft) 97,83 %
03.12.2016 22:22 -4,3 C -4,4 C -5,0 C 97 % 1 lf 1026,3 hPa 0,0 l/m 0 min 0 min 0 W/m 8,4 km/h (2 Bft) 97,87 %
03.12.2016 22:24 -4,3 C -4,4 C -5,0 C 97 % 1 lf 1026,3 hPa 0,0 l/m 0 min 0 min 0 W/m 6,3 km/h (2 Bft) 100,00 %
03.12.2016 22:26 -4,3 C -4,4 C -5,0 C 97 % 1 lf 1026,3 hPa 0,0 l/m 0 min 0 min 0 W/m 6,3 km/h (2 Bft) 100,00 %
03.12.2016 22:28 -4,3 C -4,4 C -5,0 C 97 % 1 lf 1026,3 hPa 0,0 l/m 0 min 0 min 5 W/m 4,2 km/h (1 Bft) 100,00 %
03.12.2016 22:30 -4,3 C -4,4 C -5,0 C 97 % 1 lf 1026,2 hPa 0,0 l/m 0 min 0 min 0 W/m 4,2 km/h (1 Bft) 100,00 %
03.12.2016 22:32 -4,3 C -4,4 C -5,0 C 97 % 1 lf 1026,2 hPa 0,0 l/m 0 min 0 min 0 W/m 4,2 km/h (1 Bft) 100,00 %
03.12.2016 22:34 -4,3 C -4,4 C -5,0 C 97 % 1 lf 1026,2 hPa 0,0 l/m 0 min 0 min 0 W/m 4,2 km/h (1 Bft) 97,87 %
03.12.2016 22:36 -4,4 C -4,4 C -5,0 C 97 % 1 lf 1026,2 hPa 0,0 l/m 0 min 0 min 0 W/m 4,2 km/h (1 Bft) 95,35 %
03.12.2016 22:38 -4,4 C -4,4 C -5,0 C 97 % 1 lf 1026,2 hPa 0,0 l/m 0 min 0 min 0 W/m 4,2 km/h (1 Bft) 100,00 %
03.12.2016 22:40 -4,4 C -4,4 C -5,0 C 97 % 1 lf 1026,2 hPa 0,0 l/m 0 min 0 min 0 W/m 4,2 km/h (1 Bft) 100,00 %
03.12.2016 22:42 -4,4 C -4,4 C -5,0 C 97 % 1 lf 1026,2 hPa 0,0 l/m 0 min 0 min 0 W/m 4,2 km/h (1 Bft) 100,00 %
03.12.2016 22:44 -4,4 C -4,4 C -5,0 C 97 % 1 lf 1026,1 hPa 0,0 l/m 0 min 0 min 0 W/m 6,3 km/h (2 Bft) 100,00 %
03.12.2016 22:46 -4,4 C -4,4 C -5,0 C 97 % 1 lf 1026,1 hPa 0,0 l/m 0 min 0 min 0 W/m 6,3 km/h (2 Bft) 100,00 %
03.12.2016 22:48 -4,4 C -3,9 C -5,0 C 97 % 1 lf 1026,2 hPa 0,0 l/m 0 min 0 min 0 W/m 4,2 km/h (1 Bft) 97,87 %
03.12.2016 22:50 -4,4 C -3,9 C -5,0 C 97 % 1 lf 1026,1 hPa 0,0 l/m 0 min 0 min 0 W/m 8,4 km/h (2 Bft) 100,00 %
03.12.2016 22:52 -4,4 C -3,9 C -5,0 C 97 % 1 lf 1026,2 hPa 0,0 l/m 0 min 0 min 0 W/m 6,3 km/h (2 Bft) 95,65 %
03.12.2016 22:54 -4,4 C -3,9 C -5,0 C 97 % 1 lf 1026,2 hPa 0,0 l/m 0 min 0 min 0 W/m 4,2 km/h (1 Bft) 95,74 %
03.12.2016 22:56 -4,4 C -3,9 C -5,0 C 97 % 1 lf 1026,2 hPa 0,0 l/m 0 min 0 min 5 W/m 6,3 km/h (2 Bft) 97,87 %
03.12.2016 22:58 -4,3 C -3,9 C -5,0 C 97 % 1 lf 1026,3 hPa 0,0 l/m 0 min 0 min 0 W/m 6,3 km/h (2 Bft) 95,74 %
03.12.2016 23:00 -4,3 C -3,9 C -5,0 C 97 % 1 lf 1026,3 hPa 0,0 l/m 0 min 0 min 0 W/m 6,3 km/h (2 Bft) 93,62 %
03.12.2016 23:02 -4,3 C -3,9 C -5,0 C 97 % 1 lf 1026,3 hPa 0,0 l/m 0 min 0 min 0 W/m 8,4 km/h (2 Bft) 97,87 %
03.12.2016 23:04 -4,3 C -3,9 C -5,0 C 97 % 1 lf 1026,3 hPa 0,0 l/m 0 min 0 min 0 W/m 8,4 km/h (2 Bft) 95,65 %
03.12.2016 23:06 -4,3 C -3,9 C -5,0 C 97 % 1 lf 1026,3 hPa 0,0 l/m 0 min 0 min 5 W/m 8,4 km/h (2 Bft) 96,00 %
03.12.2016 23:08 -4,3 C -3,9 C -5,0 C 97 % 1 lf 1026,3 hPa 0,0 l/m 0 min 0 min 0 W/m 6,3 km/h (2 Bft) 95,74 %
03.12.2016 23:10 -4,3 C -3,9 C -5,0 C 97 % 1 lf 1026,3 hPa 0,0 l/m 0 min 0 min 5 W/m 6,3 km/h (2 Bft) 97,87 %
03.12.2016 23:12 -4,3 C -3,9 C -5,0 C 97 % 1 lf 1026,3 hPa 0,0 l/m 0 min 0 min 5 W/m 8,4 km/h (2 Bft) 95,74 %
03.12.2016 23:14 -4,3 C -3,9 C -5,0 C 97 % 1 lf 1026,3 hPa 0,0 l/m 0 min 0 min 5 W/m 6,3 km/h (2 Bft) 93,48 %
03.12.2016 23:16 -4,3 C -3,9 C -5,0 C 97 % 1 lf 1026,3 hPa 0,0 l/m 0 min 0 min 5 W/m 6,3 km/h (2 Bft) 93,62 %
03.12.2016 23:18 -4,3 C -4,4 C -5,0 C 97 % 1 lf 1026,3 hPa 0,0 l/m 0 min 0 min 5 W/m 6,3 km/h (2 Bft) 95,74 %
03.12.2016 23:20 -4,3 C -3,9 C -5,0 C 97 % 1 lf 1026,3 hPa 0,0 l/m 0 min 0 min 4 W/m 8,4 km/h (2 Bft) 95,74 %
03.12.2016 23:22 -4,3 C -3,9 C -5,0 C 97 % 1 lf 1026,3 hPa 0,0 l/m 0 min 0 min 4 W/m 6,3 km/h (2 Bft) 89,58 %
03.12.2016 23:24 -4,3 C -3,9 C -5,0 C 97 % 1 lf 1026,3 hPa 0,0 l/m 0 min 0 min 4 W/m 4,2 km/h (1 Bft) 93,62 %
03.12.2016 23:26 -4,3 C -3,9 C -5,0 C 97 % 1 lf 1026,2 hPa 0,0 l/m 0 min 0 min 4 W/m 6,3 km/h (2 Bft) 93,48 %
03.12.2016 23:28 -4,3 C -4,4 C -5,0 C 97 % 1 lf 1026,3 hPa 0,0 l/m 0 min 0 min 4 W/m 4,2 km/h (1 Bft) 91,49 %
03.12.2016 23:30 -4,3 C -3,9 C -5,0 C 97 % 1 lf 1026,3 hPa 0,0 l/m 0 min 0 min 5 W/m 6,3 km/h (2 Bft) 91,49 %
03.12.2016 23:32 -4,3 C -3,9 C -5,0 C 97 % 1 lf 1026,3 hPa 0,0 l/m 0 min 0 min 5 W/m 6,3 km/h (2 Bft) 91,49 %
03.12.2016 23:34 -4,3 C -4,4 C -5,0 C 97 % 1 lf 1026,3 hPa 0,0 l/m 0 min 0 min 4 W/m 6,3 km/h (2 Bft) 91,49 %
03.12.2016 23:36 -4,3 C -4,4 C -5,0 C 97 % 1 lf 1026,3 hPa 0,0 l/m 0 min 0 min 4 W/m 4,2 km/h (1 Bft) 91,49 %
03.12.2016 23:38 -4,3 C -4,4 C -5,0 C 97 % 1 lf 1026,3 hPa 0,0 l/m 0 min 0 min 4 W/m 6,3 km/h (2 Bft) 91,49 %
03.12.2016 23:40 -4,3 C -4,4 C -5,0 C 97 % 1 lf 1026,3 hPa 0,0 l/m 0 min 0 min 4 W/m 6,3 km/h (2 Bft) 93,48 %
03.12.2016 23:42 -4,3 C -4,4 C -5,0 C 97 % 1 lf 1026,3 hPa 0,0 l/m 0 min 0 min 4 W/m 4,2 km/h (1 Bft) 93,62 %
03.12.2016 23:44 -4,3 C -4,4 C -5,0 C 97 % 1 lf 1026,3 hPa 0,0 l/m 0 min 0 min 3 W/m 4,2 km/h (1 Bft) 93,62 %
03.12.2016 23:46 -4,3 C -4,4 C -5,0 C 97 % 1 lf 1026,4 hPa 0,0 l/m 0 min 0 min 3 W/m 4,2 km/h (1 Bft) 91,49 %
03.12.2016 23:48 -4,3 C -4,4 C -5,0 C 97 % 1 lf 1026,5 hPa 0,0 l/m 0 min 0 min 2 W/m 6,3 km/h (2 Bft) 95,74 %
03.12.2016 23:50 -4,3 C -4,4 C -5,0 C 97 % 1 lf 1026,5 hPa 0,0 l/m 0 min 0 min 2 W/m 6,3 km/h (2 Bft) 93,62 %
03.12.2016 23:52 -4,3 C -4,4 C -5,0 C 97 % 1 lf 1026,5 hPa 0,0 l/m 0 min 0 min 3 W/m 6,3 km/h (2 Bft) 91,30 %
03.12.2016 23:54 -4,4 C -4,4 C -5,0 C 97 % 1 lf 1026,5 hPa 0,0 l/m 0 min 0 min 3 W/m 4,2 km/h (1 Bft) 97,87 %
03.12.2016 23:56 -4,4 C -4,4 C -5,0 C 97 % 1 lf 1026,6 hPa 0,0 l/m 0 min 0 min 2 W/m 6,3 km/h (2 Bft) 100,00 %
03.12.2016 23:58 -4,4 C -4,4 C -5,0 C 97 % 1 lf 1026,6 hPa 0,0 l/m 0 min 0 min 2 W/m 6,3 km/h (2 Bft) 97,87 %
_ Min-Zeit 22:32 21:34 21:32 00:00 03:10 00:00 - - - - 00:00 09:12
Minimum _ -4,4 C -5,6 C -6,1 C 94 % 1 lf 1023,8 hPa - - - - 0,0 km/h (0 Bft) 86,96 %
_ Max-Zeit 13:48 11:14 14:00 13:46 00:00 23:56 11:12 08:34 11:24 13:38 22:10 00:06
Maximum _ 0,4 C 5,0 C 0,0 C 98 % 15 lf 1026,6 hPa 0,2 l/m 2 min 2 min 296 W/m 12,6 km/h
S (3 Bft)
100,00 %
Durchschnitt _ -1,9 C -1,8 C -3,3 C 96 % 5 lf 1025,3 hPa #0,2 l/m #6:14 h #4 min. 109 W/m 2,8 km/h (1 Bft) 95,89 %
© 2016 W. Hausmann